Wetterdaten: Dienstag, 30.10.2018
Datum Zeit Temp. Aussen Temp. o. S. +5cm Feuchte Auss Luftdruck Regen Sonnenschein Regendauer Solar Windben Empfang
30.10.2018 00:00 4,8 C 3,9 C 3,3 C 92 % 988,6 hPa 0,0 l/m 0 min 2 min 0 W/m 25,7 km/h (4 Bft) 95,74 %
30.10.2018 00:02 4,8 C 3,9 C 3,3 C 92 % 988,5 hPa 0,0 l/m 0 min 2 min 0 W/m 12,9 km/h (3 Bft) 97,30 %
30.10.2018 00:04 4,8 C 3,9 C 3,3 C 92 % 988,5 hPa 0,0 l/m 0 min 0 min 0 W/m 16,1 km/h (3 Bft) 93,62 %
30.10.2018 00:08 4,7 C 3,9 C 3,3 C 92 % 988,4 hPa 0,0 l/m 0 min 0 min 0 W/m 16,1 km/h (3 Bft) 95,88 %
30.10.2018 00:10 4,7 C 3,9 C 3,3 C 92 % 988,2 hPa 0,0 l/m 0 min 0 min 0 W/m 16,1 km/h (3 Bft) 95,74 %
30.10.2018 00:12 4,7 C 3,9 C 3,3 C 92 % 988,1 hPa 0,0 l/m 0 min 2 min 0 W/m 16,1 km/h (3 Bft) 97,87 %
30.10.2018 00:14 4,7 C 3,9 C 3,3 C 92 % 988,1 hPa 0,0 l/m 0 min 0 min 0 W/m 19,3 km/h (3 Bft) 95,65 %
30.10.2018 00:16 4,7 C 3,9 C 3,3 C 93 % 988,0 hPa 0,0 l/m 0 min 0 min 0 W/m 16,1 km/h (3 Bft) 97,87 %
30.10.2018 00:18 4,7 C 3,9 C 3,3 C 93 % 988,0 hPa 0,0 l/m 0 min 2 min 0 W/m 16,1 km/h (3 Bft) 97,87 %
30.10.2018 00:20 4,7 C 3,9 C 3,9 C 93 % 988,0 hPa 0,0 l/m 0 min 2 min 0 W/m 29,0 km/h (5 Bft) 97,87 %
30.10.2018 00:22 4,7 C 3,9 C 3,3 C 93 % 988,1 hPa 0,0 l/m 0 min 2 min 0 W/m 22,5 km/h (4 Bft) 95,74 %
30.10.2018 00:24 4,7 C 3,9 C 3,3 C 93 % 988,1 hPa 0,0 l/m 0 min 2 min 0 W/m 19,3 km/h (3 Bft) 95,74 %
30.10.2018 00:26 4,7 C 3,9 C 3,3 C 93 % 987,8 hPa 0,0 l/m 0 min 2 min 0 W/m 22,5 km/h (4 Bft) 95,65 %
30.10.2018 00:28 4,7 C 3,9 C 3,3 C 93 % 987,8 hPa 0,0 l/m 0 min 2 min 0 W/m 9,7 km/h (2 Bft) 95,74 %
30.10.2018 00:30 4,7 C 3,9 C 3,3 C 93 % 987,5 hPa 0,0 l/m 0 min 2 min 0 W/m 29,0 km/h (5 Bft) 95,74 %
30.10.2018 00:32 4,7 C 3,9 C 3,3 C 93 % 987,5 hPa 0,0 l/m 0 min 2 min 0 W/m 9,7 km/h (2 Bft) 95,74 %
30.10.2018 00:34 4,7 C 3,9 C 3,3 C 93 % 987,5 hPa 0,0 l/m 0 min 2 min 0 W/m 22,5 km/h (4 Bft) 95,74 %
30.10.2018 00:38 4,6 C 3,9 C 3,3 C 93 % 987,4 hPa 0,2 l/m 0 min 4 min 0 W/m 19,3 km/h (3 Bft) 95,70 %
30.10.2018 00:40 4,6 C 3,9 C 3,3 C 93 % 987,3 hPa 0,0 l/m 0 min 2 min 0 W/m 16,1 km/h (3 Bft) 97,87 %
30.10.2018 00:42 4,6 C 3,9 C 3,3 C 93 % 987,2 hPa 0,0 l/m 0 min 2 min 0 W/m 22,5 km/h (4 Bft) 97,87 %
30.10.2018 00:44 4,6 C 3,9 C 3,3 C 93 % 987,1 hPa 0,0 l/m 0 min 2 min 0 W/m 29,0 km/h (5 Bft) 97,87 %
30.10.2018 00:46 4,6 C 3,9 C 3,3 C 93 % 987,1 hPa 0,0 l/m 0 min 0 min 0 W/m 12,9 km/h (3 Bft) 97,87 %
30.10.2018 00:48 4,6 C 3,9 C 3,3 C 93 % 987,0 hPa 0,0 l/m 0 min 0 min 0 W/m 16,1 km/h (3 Bft) 97,83 %
30.10.2018 00:50 4,6 C 3,9 C 3,3 C 93 % 986,9 hPa 0,0 l/m 0 min 0 min 0 W/m 19,3 km/h (3 Bft) 100,00 %
30.10.2018 00:52 4,6 C 3,9 C 3,3 C 94 % 986,9 hPa 0,0 l/m 0 min 0 min 0 W/m 12,9 km/h (3 Bft) 95,74 %
30.10.2018 00:54 4,6 C 3,9 C 3,3 C 94 % 986,8 hPa 0,0 l/m 0 min 0 min 0 W/m 16,1 km/h (3 Bft) 97,87 %
30.10.2018 00:56 4,6 C 3,9 C 3,3 C 94 % 986,8 hPa 0,0 l/m 0 min 0 min 0 W/m 9,7 km/h (2 Bft) 97,87 %
30.10.2018 00:58 4,6 C 3,9 C 3,3 C 94 % 986,9 hPa 0,0 l/m 0 min 0 min 0 W/m 19,3 km/h (3 Bft) 97,87 %
30.10.2018 01:00 4,6 C 3,9 C 3,3 C 94 % 986,9 hPa 0,0 l/m 0 min 0 min 0 W/m 16,1 km/h (3 Bft) 95,65 %
30.10.2018 01:02 4,6 C 3,9 C 3,3 C 94 % 986,8 hPa 0,0 l/m 0 min 0 min 0 W/m 19,3 km/h (3 Bft) 97,87 %
30.10.2018 01:04 4,6 C 3,9 C 3,3 C 94 % 986,7 hPa 0,0 l/m 0 min 2 min 0 W/m 16,1 km/h (3 Bft) 97,87 %
30.10.2018 01:08 4,6 C 3,9 C 3,3 C 94 % 986,5 hPa 0,0 l/m 0 min 4 min 0 W/m 9,7 km/h (2 Bft) 96,81 %
30.10.2018 01:10 4,6 C 3,9 C 3,3 C 94 % 986,5 hPa 0,0 l/m 0 min 0 min 0 W/m 6,4 km/h (2 Bft) 97,87 %
30.10.2018 01:12 4,6 C 3,9 C 3,3 C 94 % 986,3 hPa 0,0 l/m 0 min 0 min 0 W/m 25,7 km/h (4 Bft) 97,83 %
30.10.2018 01:14 4,6 C 3,9 C 3,3 C 94 % 986,2 hPa 0,0 l/m 0 min 0 min 0 W/m 16,1 km/h (3 Bft) 97,87 %
30.10.2018 01:16 4,6 C 3,9 C 3,3 C 94 % 986,3 hPa 0,0 l/m 0 min 0 min 0 W/m 22,5 km/h (4 Bft) 97,87 %
30.10.2018 01:18 4,6 C 3,9 C 3,3 C 94 % 986,3 hPa 0,0 l/m 0 min 0 min 0 W/m 16,1 km/h (3 Bft) 97,87 %
30.10.2018 01:20 4,6 C 3,9 C 3,3 C 94 % 986,2 hPa 0,0 l/m 0 min 0 min 0 W/m 16,1 km/h (3 Bft) 97,87 %
30.10.2018 01:22 4,6 C 3,9 C 3,3 C 94 % 986,1 hPa 0,0 l/m 0 min 0 min 0 W/m 16,1 km/h (3 Bft) 97,87 %
30.10.2018 01:24 4,6 C 3,9 C 3,3 C 94 % 986,0 hPa 0,0 l/m 0 min 0 min 0 W/m 16,1 km/h (3 Bft) 97,83 %
30.10.2018 01:26 4,6 C 3,9 C 3,3 C 94 % 985,9 hPa 0,0 l/m 0 min 2 min 0 W/m 12,9 km/h (3 Bft) 97,87 %
30.10.2018 01:28 4,6 C 3,9 C 3,3 C 94 % 985,9 hPa 0,0 l/m 0 min 2 min 0 W/m 22,5 km/h (4 Bft) 97,87 %
30.10.2018 01:30 4,6 C 3,9 C 3,3 C 94 % 985,9 hPa 0,0 l/m 0 min 2 min 0 W/m 16,1 km/h (3 Bft) 97,87 %
30.10.2018 01:32 4,6 C 3,9 C 3,3 C 94 % 986,1 hPa 0,2 l/m 0 min 2 min 0 W/m 19,3 km/h (3 Bft) 97,56 %
30.10.2018 01:34 4,6 C 3,9 C 3,3 C 95 % 986,5 hPa 0,0 l/m 0 min 2 min 0 W/m 12,9 km/h (3 Bft) 100,00 %
30.10.2018 01:38 4,6 C 3,9 C 3,3 C 95 % 986,1 hPa 0,0 l/m 0 min 4 min 0 W/m 22,5 km/h (4 Bft) 98,94 %
30.10.2018 01:40 4,6 C 3,9 C 3,3 C 95 % 985,7 hPa 0,2 l/m 0 min 2 min 0 W/m 16,1 km/h (3 Bft) 100,00 %
30.10.2018 01:42 4,6 C 3,9 C 3,3 C 94 % 985,6 hPa 0,0 l/m 0 min 2 min 0 W/m 16,1 km/h (3 Bft) 100,00 %
30.10.2018 01:44 4,6 C 3,9 C 3,3 C 95 % 985,9 hPa 0,0 l/m 0 min 2 min 0 W/m 9,7 km/h (2 Bft) 100,00 %
30.10.2018 01:46 4,6 C 3,9 C 3,3 C 95 % 985,9 hPa 0,0 l/m 0 min 2 min 0 W/m 6,4 km/h (2 Bft) 95,74 %
30.10.2018 01:48 4,6 C 3,9 C 3,3 C 95 % 986,0 hPa 0,2 l/m 0 min 2 min 0 W/m 16,1 km/h (3 Bft) 97,87 %
30.10.2018 01:50 4,6 C 3,9 C 3,3 C 95 % 985,9 hPa 0,0 l/m 0 min 2 min 0 W/m 12,9 km/h (3 Bft) 100,00 %
30.10.2018 01:52 4,5 C 3,9 C 3,3 C 95 % 985,9 hPa 0,0 l/m 0 min 2 min 0 W/m 12,9 km/h (3 Bft) 100,00 %
30.10.2018 01:54 4,5 C 3,9 C 3,3 C 95 % 986,0 hPa 0,0 l/m 0 min 2 min 0 W/m 16,1 km/h (3 Bft) 100,00 %
30.10.2018 01:56 4,6 C 3,9 C 3,3 C 95 % 985,9 hPa 0,0 l/m 0 min 2 min 0 W/m 16,1 km/h (3 Bft) 97,87 %
30.10.2018 01:58 4,5 C 3,9 C 3,3 C 95 % 985,6 hPa 0,0 l/m 0 min 2 min 0 W/m 29,0 km/h (5 Bft) 100,00 %
30.10.2018 02:00 4,5 C 3,9 C 3,3 C 95 % 985,3 hPa 0,0 l/m 0 min 2 min 0 W/m 9,7 km/h (2 Bft) 100,00 %
30.10.2018 02:02 4,5 C 3,9 C 3,3 C 95 % 985,1 hPa 0,2 l/m 0 min 2 min 0 W/m 6,4 km/h (2 Bft) 97,62 %
30.10.2018 02:04 4,5 C 3,9 C 3,3 C 95 % 984,8 hPa 0,0 l/m 0 min 2 min 0 W/m 12,9 km/h (3 Bft) 100,00 %
30.10.2018 02:08 4,5 C 3,9 C 3,3 C 95 % 984,8 hPa 0,2 l/m 0 min 4 min 0 W/m 16,1 km/h (3 Bft) 97,87 %
30.10.2018 02:10 4,5 C 3,9 C 3,3 C 95 % 984,8 hPa 0,0 l/m 0 min 2 min 0 W/m 6,4 km/h (2 Bft) 100,00 %
30.10.2018 02:12 4,5 C 3,9 C 3,3 C 95 % 984,7 hPa 0,0 l/m 0 min 2 min 0 W/m 6,4 km/h (2 Bft) 97,87 %
30.10.2018 02:14 4,5 C 3,9 C 3,3 C 95 % 984,8 hPa 0,0 l/m 0 min 2 min 0 W/m 9,7 km/h (2 Bft) 97,87 %
30.10.2018 02:16 4,5 C 3,9 C 3,3 C 95 % 984,8 hPa 0,2 l/m 0 min 0 min 0 W/m 16,1 km/h (3 Bft) 95,65 %
30.10.2018 02:18 4,5 C 3,9 C 3,3 C 95 % 984,8 hPa 0,0 l/m 0 min 2 min 0 W/m 3,2 km/h (1 Bft) 97,87 %
30.10.2018 02:20 4,5 C 3,9 C 3,3 C 95 % 984,7 hPa 0,0 l/m 0 min 2 min 0 W/m 12,9 km/h (3 Bft) 97,87 %
30.10.2018 02:22 4,5 C 3,9 C 3,3 C 95 % 984,7 hPa 0,0 l/m 0 min 2 min 0 W/m 6,4 km/h (2 Bft) 95,74 %
30.10.2018 02:24 4,5 C 3,9 C 3,3 C 95 % 984,9 hPa 0,0 l/m 0 min 2 min 0 W/m 19,3 km/h (3 Bft) 95,74 %
30.10.2018 02:26 4,5 C 3,9 C 3,3 C 95 % 985,0 hPa 0,0 l/m 0 min 2 min 0 W/m 19,3 km/h (3 Bft) 95,74 %
30.10.2018 02:28 4,5 C 3,9 C 3,3 C 95 % 984,9 hPa 0,2 l/m 0 min 2 min 0 W/m 16,1 km/h (3 Bft) 93,48 %
30.10.2018 02:30 4,5 C 3,9 C 3,3 C 95 % 985,0 hPa 0,0 l/m 0 min 2 min 0 W/m 12,9 km/h (3 Bft) 95,74 %
30.10.2018 02:32 4,5 C 3,9 C 3,3 C 95 % 985,1 hPa 0,2 l/m 0 min 2 min 0 W/m 6,4 km/h (2 Bft) 95,74 %
30.10.2018 02:34 4,5 C 3,9 C 3,3 C 95 % 985,0 hPa 0,2 l/m 0 min 2 min 0 W/m 12,9 km/h (3 Bft) 95,74 %
30.10.2018 02:38 4,5 C 3,9 C 3,3 C 95 % 985,1 hPa 0,4 l/m 0 min 4 min 0 W/m 9,7 km/h (2 Bft) 95,74 %
30.10.2018 02:40 4,5 C 3,9 C 3,3 C 95 % 985,2 hPa 0,0 l/m 0 min 2 min 0 W/m 16,1 km/h (3 Bft) 95,65 %
30.10.2018 02:42 4,5 C 3,9 C 3,3 C 95 % 985,2 hPa 0,2 l/m 0 min 2 min 0 W/m 9,7 km/h (2 Bft) 93,62 %
30.10.2018 02:44 4,5 C 3,9 C 3,3 C 95 % 985,1 hPa 0,0 l/m 0 min 2 min 0 W/m 12,9 km/h (3 Bft) 93,62 %
30.10.2018 02:46 4,5 C 3,9 C 3,3 C 95 % 985,1 hPa 0,2 l/m 0 min 2 min 0 W/m 16,1 km/h (3 Bft) 95,83 %
30.10.2018 02:48 4,5 C 3,9 C 3,3 C 95 % 985,3 hPa 0,2 l/m 0 min 2 min 0 W/m 6,4 km/h (2 Bft) 95,74 %
30.10.2018 02:50 4,5 C 3,9 C 3,3 C 96 % 985,4 hPa 0,2 l/m 0 min 2 min 0 W/m 9,7 km/h (2 Bft) 95,74 %
30.10.2018 02:52 4,5 C 3,9 C 3,3 C 96 % 985,6 hPa 0,2 l/m 0 min 2 min 0 W/m 12,9 km/h (3 Bft) 95,65 %
30.10.2018 02:54 4,5 C 3,9 C 3,3 C 96 % 985,7 hPa 0,2 l/m 0 min 2 min 0 W/m 6,4 km/h (2 Bft) 95,74 %
30.10.2018 02:56 4,5 C 3,9 C 3,9 C 96 % 986,1 hPa 0,4 l/m 0 min 2 min 0 W/m 9,7 km/h (2 Bft) 93,62 %
30.10.2018 02:58 4,5 C 3,9 C 3,9 C 96 % 986,4 hPa 0,4 l/m 0 min 2 min 0 W/m 6,4 km/h (2 Bft) 95,74 %
30.10.2018 03:00 4,5 C 3,9 C 3,3 C 96 % 986,3 hPa 0,4 l/m 0 min 2 min 0 W/m 6,4 km/h (2 Bft) 97,87 %
30.10.2018 03:02 4,5 C 3,9 C 3,9 C 96 % 986,5 hPa 0,4 l/m 0 min 2 min 0 W/m 6,4 km/h (2 Bft) 97,83 %
30.10.2018 03:04 4,5 C 3,9 C 3,3 C 96 % 986,3 hPa 0,2 l/m 0 min 2 min 0 W/m 6,4 km/h (2 Bft) 95,74 %
30.10.2018 03:08 4,5 C 3,9 C 3,3 C 96 % 986,1 hPa 0,6 l/m 0 min 4 min 0 W/m 0,0 km/h (0 Bft) 98,94 %
30.10.2018 03:10 4,5 C 3,9 C 3,9 C 96 % 986,2 hPa 0,4 l/m 0 min 2 min 0 W/m 0,0 km/h (0 Bft) 100,00 %
30.10.2018 03:12 4,5 C 3,9 C 3,9 C 96 % 986,1 hPa 0,2 l/m 0 min 2 min 0 W/m 0,0 km/h (0 Bft) 97,87 %
30.10.2018 03:14 4,5 C 3,9 C 3,9 C 96 % 986,2 hPa 0,4 l/m 0 min 2 min 0 W/m 0,0 km/h (0 Bft) 97,83 %
30.10.2018 03:16 4,5 C 3,9 C 3,9 C 96 % 986,0 hPa 0,2 l/m 0 min 2 min 0 W/m 0,0 km/h (0 Bft) 97,92 %
30.10.2018 03:18 4,5 C 3,9 C 3,3 C 96 % 985,7 hPa 0,4 l/m 0 min 2 min 0 W/m 0,0 km/h (0 Bft) 100,00 %
30.10.2018 03:20 4,5 C 3,9 C 3,3 C 96 % 984,7 hPa 0,4 l/m 0 min 2 min 0 W/m 3,2 km/h (1 Bft) 100,00 %
30.10.2018 03:22 4,5 C 3,9 C 3,3 C 96 % 984,3 hPa 0,2 l/m 0 min 2 min 0 W/m 6,4 km/h (2 Bft) 100,00 %
30.10.2018 03:24 4,5 C 3,9 C 3,3 C 96 % 984,1 hPa 0,2 l/m 0 min 2 min 0 W/m 6,4 km/h (2 Bft) 100,00 %
30.10.2018 03:26 4,5 C 3,9 C 3,3 C 96 % 983,6 hPa 0,2 l/m 0 min 2 min 0 W/m 6,4 km/h (2 Bft) 100,00 %
30.10.2018 03:28 4,5 C 3,9 C 3,3 C 96 % 983,6 hPa 0,2 l/m 0 min 2 min 0 W/m 12,9 km/h (3 Bft) 100,00 %
30.10.2018 03:30 4,5 C 3,9 C 3,3 C 96 % 983,6 hPa 0,0 l/m 0 min 2 min 0 W/m 9,7 km/h (2 Bft) 100,00 %
30.10.2018 03:32 4,5 C 3,9 C 3,3 C 96 % 983,5 hPa 0,0 l/m 0 min 2 min 0 W/m 12,9 km/h (3 Bft) 100,00 %
30.10.2018 03:34 4,4 C 3,9 C 3,3 C 96 % 983,4 hPa 0,2 l/m 0 min 2 min 0 W/m 12,9 km/h (3 Bft) 100,00 %
30.10.2018 03:38 4,4 C 3,9 C 3,3 C 96 % 983,5 hPa 0,0 l/m 0 min 4 min 0 W/m 9,7 km/h (2 Bft) 98,92 %
30.10.2018 03:40 4,4 C 3,9 C 3,3 C 96 % 983,8 hPa 0,2 l/m 0 min 2 min 0 W/m 6,4 km/h (2 Bft) 100,00 %
30.10.2018 03:42 4,4 C 3,9 C 3,3 C 96 % 983,8 hPa 0,0 l/m 0 min 2 min 0 W/m 3,2 km/h (1 Bft) 100,00 %
30.10.2018 03:44 4,4 C 3,9 C 3,3 C 96 % 983,6 hPa 0,2 l/m 0 min 2 min 0 W/m 3,2 km/h (1 Bft) 100,00 %
30.10.2018 03:46 4,4 C 3,9 C 3,3 C 96 % 984,5 hPa 0,0 l/m 0 min 2 min 0 W/m 9,7 km/h (2 Bft) 100,00 %
30.10.2018 03:48 4,4 C 3,9 C 3,9 C 96 % 984,5 hPa 0,0 l/m 0 min 2 min 0 W/m 6,4 km/h (2 Bft) 100,00 %
30.10.2018 03:50 4,4 C 3,9 C 3,3 C 96 % 984,5 hPa 0,0 l/m 0 min 0 min 0 W/m 3,2 km/h (1 Bft) 97,83 %
30.10.2018 03:52 4,4 C 3,9 C 3,3 C 96 % 984,3 hPa 0,0 l/m 0 min 0 min 0 W/m 3,2 km/h (1 Bft) 97,87 %
30.10.2018 03:54 4,4 C 3,9 C 3,3 C 96 % 984,2 hPa 0,2 l/m 0 min 0 min 0 W/m 6,4 km/h (2 Bft) 97,87 %
30.10.2018 03:56 4,4 C 3,9 C 3,3 C 96 % 984,4 hPa 0,0 l/m 0 min 0 min 0 W/m 6,4 km/h (2 Bft) 100,00 %
30.10.2018 03:58 4,4 C 3,9 C 3,3 C 96 % 984,5 hPa 0,0 l/m 0 min 0 min 0 W/m 6,4 km/h (2 Bft) 100,00 %
30.10.2018 04:00 4,4 C 3,9 C 3,3 C 96 % 984,5 hPa 0,0 l/m 0 min 0 min 0 W/m 3,2 km/h (1 Bft) 100,00 %
30.10.2018 04:02 4,4 C 3,9 C 3,3 C 96 % 984,3 hPa 0,0 l/m 0 min 0 min 0 W/m 6,4 km/h (2 Bft) 100,00 %
30.10.2018 04:04 4,4 C 3,9 C 3,3 C 96 % 984,0 hPa 0,0 l/m 0 min 0 min 0 W/m 6,4 km/h (2 Bft) 97,87 %
30.10.2018 04:08 4,4 C 3,9 C 3,3 C 96 % 983,9 hPa 0,0 l/m 0 min 0 min 0 W/m 6,4 km/h (2 Bft) 98,94 %
30.10.2018 04:10 4,4 C 3,9 C 3,3 C 96 % 984,0 hPa 0,0 l/m 0 min 0 min 0 W/m 3,2 km/h (1 Bft) 100,00 %
30.10.2018 04:12 4,4 C 3,9 C 3,9 C 96 % 984,0 hPa 0,0 l/m 0 min 0 min 0 W/m 6,4 km/h (2 Bft) 100,00 %
30.10.2018 04:14 4,4 C 3,9 C 3,9 C 96 % 984,0 hPa 0,0 l/m 0 min 0 min 0 W/m 6,4 km/h (2 Bft) 100,00 %
30.10.2018 04:16 4,4 C 3,9 C 3,9 C 96 % 983,9 hPa 0,0 l/m 0 min 0 min 0 W/m 6,4 km/h (2 Bft) 100,00 %
30.10.2018 04:18 4,4 C 3,9 C 3,9 C 96 % 983,9 hPa 0,0 l/m 0 min 0 min 0 W/m 6,4 km/h (2 Bft) 97,87 %
30.10.2018 04:20 4,4 C 3,9 C 3,9 C 96 % 983,8 hPa 0,0 l/m 0 min 0 min 0 W/m 6,4 km/h (2 Bft) 97,87 %
30.10.2018 04:22 4,4 C 3,9 C 3,9 C 96 % 983,6 hPa 0,0 l/m 0 min 0 min 0 W/m 3,2 km/h (1 Bft) 97,87 %
30.10.2018 04:24 4,4 C 3,9 C 3,9 C 96 % 983,5 hPa 0,0 l/m 0 min 0 min 0 W/m 3,2 km/h (1 Bft) 97,83 %
30.10.2018 04:26 4,4 C 3,9 C 3,3 C 96 % 983,4 hPa 0,0 l/m 0 min 0 min 0 W/m 3,2 km/h (1 Bft) 97,87 %
30.10.2018 04:28 4,4 C 3,9 C 3,3 C 96 % 983,4 hPa 0,0 l/m 0 min 0 min 0 W/m 0,0 km/h (0 Bft) 97,87 %
30.10.2018 04:30 4,4 C 3,9 C 3,3 C 96 % 983,5 hPa 0,0 l/m 0 min 0 min 0 W/m 9,7 km/h (2 Bft) 97,87 %
30.10.2018 04:32 4,4 C 3,9 C 3,9 C 96 % 983,5 hPa 0,0 l/m 0 min 0 min 0 W/m 6,4 km/h (2 Bft) 95,74 %
30.10.2018 04:34 4,4 C 3,9 C 3,9 C 96 % 983,6 hPa 0,0 l/m 0 min 0 min 0 W/m 6,4 km/h (2 Bft) 95,74 %
30.10.2018 04:38 4,4 C 3,9 C 3,9 C 96 % 983,6 hPa 0,0 l/m 0 min 0 min 0 W/m 6,4 km/h (2 Bft) 97,85 %
30.10.2018 04:40 4,4 C 3,9 C 3,9 C 96 % 983,5 hPa 0,0 l/m 0 min 0 min 0 W/m 6,4 km/h (2 Bft) 95,74 %
30.10.2018 04:42 4,4 C 3,9 C 3,9 C 96 % 983,4 hPa 0,0 l/m 0 min 0 min 0 W/m 3,2 km/h (1 Bft) 95,74 %
30.10.2018 04:44 4,4 C 3,9 C 3,9 C 96 % 983,4 hPa 0,0 l/m 0 min 0 min 0 W/m 6,4 km/h (2 Bft) 95,74 %
30.10.2018 04:46 4,4 C 3,9 C 3,9 C 97 % 983,3 hPa 0,0 l/m 0 min 0 min 0 W/m 9,7 km/h (2 Bft) 97,87 %
30.10.2018 04:48 4,4 C 3,9 C 3,9 C 97 % 983,4 hPa 0,0 l/m 0 min 0 min 0 W/m 3,2 km/h (1 Bft) 95,65 %
30.10.2018 04:50 4,4 C 3,9 C 3,9 C 97 % 983,3 hPa 0,0 l/m 0 min 0 min 0 W/m 3,2 km/h (1 Bft) 95,74 %
30.10.2018 04:52 4,4 C 3,9 C 3,9 C 97 % 983,3 hPa 0,0 l/m 0 min 0 min 0 W/m 3,2 km/h (1 Bft) 95,74 %
30.10.2018 04:54 4,4 C 3,9 C 3,9 C 97 % 983,3 hPa 0,0 l/m 0 min 0 min 0 W/m 3,2 km/h (1 Bft) 95,74 %
30.10.2018 04:56 4,4 C 3,9 C 3,9 C 97 % 983,3 hPa 0,0 l/m 0 min 0 min 0 W/m 3,2 km/h (1 Bft) 93,62 %
30.10.2018 04:58 4,4 C 3,9 C 3,9 C 97 % 983,5 hPa 0,0 l/m 0 min 0 min 0 W/m 3,2 km/h (1 Bft) 93,48 %
30.10.2018 05:00 4,4 C 3,9 C 3,9 C 97 % 983,5 hPa 0,0 l/m 0 min 0 min 0 W/m 3,2 km/h (1 Bft) 91,49 %
30.10.2018 05:02 4,4 C 3,9 C 3,9 C 97 % 983,5 hPa 0,0 l/m 0 min 0 min 0 W/m 3,2 km/h (1 Bft) 91,49 %
30.10.2018 05:04 4,4 C 3,9 C 3,9 C 97 % 983,5 hPa 0,0 l/m 0 min 0 min 0 W/m 3,2 km/h (1 Bft) 93,62 %
30.10.2018 05:08 4,4 C 3,9 C 3,9 C 97 % 983,5 hPa 0,0 l/m 0 min 0 min 0 W/m 3,2 km/h (1 Bft) 94,00 %
30.10.2018 05:10 4,4 C 3,9 C 3,9 C 97 % 983,6 hPa 0,0 l/m 0 min 0 min 0 W/m 3,2 km/h (1 Bft) 93,62 %
30.10.2018 05:12 4,5 C 3,9 C 3,9 C 97 % 983,6 hPa 0,0 l/m 0 min 0 min 0 W/m 6,4 km/h (2 Bft) 93,62 %
30.10.2018 05:14 4,4 C 3,9 C 3,9 C 97 % 983,7 hPa 0,0 l/m 0 min 0 min 0 W/m 3,2 km/h (1 Bft) 89,36 %
30.10.2018 05:16 4,5 C 3,9 C 3,9 C 97 % 983,6 hPa 0,0 l/m 0 min 0 min 0 W/m 3,2 km/h (1 Bft) 100,00 %
30.10.2018 05:18 4,5 C 3,9 C 3,9 C 97 % 983,5 hPa 0,0 l/m 0 min 0 min 0 W/m 3,2 km/h (1 Bft) 97,83 %
30.10.2018 05:20 4,5 C 3,9 C 3,9 C 97 % 983,5 hPa 0,0 l/m 0 min 0 min 0 W/m 3,2 km/h (1 Bft) 95,74 %
30.10.2018 05:22 4,5 C 3,9 C 3,9 C 97 % 983,4 hPa 0,0 l/m 0 min 0 min 0 W/m 3,2 km/h (1 Bft) 95,74 %
30.10.2018 05:24 4,5 C 3,9 C 3,9 C 97 % 983,5 hPa 0,0 l/m 0 min 0 min 0 W/m 6,4 km/h (2 Bft) 93,62 %
30.10.2018 05:26 4,5 C 3,9 C 3,9 C 97 % 983,6 hPa 0,0 l/m 0 min 0 min 0 W/m 3,2 km/h (1 Bft) 93,62 %
30.10.2018 05:28 4,5 C 3,9 C 3,9 C 97 % 983,5 hPa 0,0 l/m 0 min 0 min 0 W/m 3,2 km/h (1 Bft) 95,74 %
30.10.2018 05:30 4,5 C 3,9 C 3,9 C 97 % 983,5 hPa 0,0 l/m 0 min 0 min 0 W/m 3,2 km/h (1 Bft) 93,48 %
30.10.2018 05:32 4,5 C 3,9 C 3,9 C 97 % 983,5 hPa 0,0 l/m 0 min 0 min 0 W/m 3,2 km/h (1 Bft) 93,62 %
30.10.2018 05:34 4,5 C 3,9 C 3,9 C 97 % 983,6 hPa 0,0 l/m 0 min 0 min 0 W/m 3,2 km/h (1 Bft) 95,74 %
30.10.2018 05:38 4,5 C 3,9 C 3,9 C 97 % 983,7 hPa 0,0 l/m 0 min 0 min 0 W/m 3,2 km/h (1 Bft) 95,74 %
30.10.2018 05:40 4,6 C 3,9 C 3,9 C 97 % 983,7 hPa 0,0 l/m 0 min 0 min 0 W/m 6,4 km/h (2 Bft) 97,87 %
30.10.2018 05:42 4,6 C 3,9 C 3,9 C 97 % 983,4 hPa 0,0 l/m 0 min 0 min 0 W/m 6,4 km/h (2 Bft) 97,83 %
30.10.2018 05:44 4,6 C 3,9 C 3,9 C 97 % 983,5 hPa 0,0 l/m 0 min 0 min 0 W/m 6,4 km/h (2 Bft) 100,00 %
30.10.2018 05:46 4,6 C 3,9 C 3,9 C 97 % 983,3 hPa 0,0 l/m 0 min 0 min 0 W/m 6,4 km/h (2 Bft) 97,92 %
30.10.2018 05:48 4,6 C 3,9 C 3,9 C 97 % 983,4 hPa 0,0 l/m 0 min 0 min 0 W/m 3,2 km/h (1 Bft) 100,00 %
30.10.2018 05:50 4,6 C 3,9 C 3,9 C 97 % 983,7 hPa 0,0 l/m 0 min 0 min 0 W/m 6,4 km/h (2 Bft) 100,00 %
30.10.2018 05:52 4,6 C 3,9 C 3,9 C 97 % 983,8 hPa 0,0 l/m 0 min 0 min 0 W/m 6,4 km/h (2 Bft) 100,00 %
30.10.2018 05:54 4,6 C 3,9 C 3,9 C 97 % 983,9 hPa 0,0 l/m 0 min 0 min 0 W/m 6,4 km/h (2 Bft) 97,87 %
30.10.2018 05:56 4,6 C 3,9 C 3,9 C 97 % 983,8 hPa 0,0 l/m 0 min 0 min 0 W/m 3,2 km/h (1 Bft) 100,00 %
30.10.2018 05:58 4,6 C 3,9 C 3,9 C 97 % 983,8 hPa 0,0 l/m 0 min 0 min 0 W/m 6,4 km/h (2 Bft) 100,00 %
30.10.2018 06:00 4,6 C 3,9 C 3,9 C 97 % 983,8 hPa 0,0 l/m 0 min 0 min 0 W/m 6,4 km/h (2 Bft) 97,87 %
30.10.2018 06:02 4,7 C 3,9 C 3,9 C 97 % 983,8 hPa 0,0 l/m 0 min 0 min 0 W/m 3,2 km/h (1 Bft) 100,00 %
30.10.2018 06:04 4,7 C 3,9 C 3,9 C 97 % 983,9 hPa 0,0 l/m 0 min 0 min 0 W/m 3,2 km/h (1 Bft) 100,00 %
30.10.2018 06:08 4,7 C 4,4 C 3,9 C 97 % 983,9 hPa 0,0 l/m 0 min 0 min 0 W/m 6,4 km/h (2 Bft) 98,94 %
30.10.2018 06:10 4,7 C 4,4 C 3,9 C 97 % 984,0 hPa 0,0 l/m 0 min 0 min 0 W/m 3,2 km/h (1 Bft) 100,00 %
30.10.2018 06:12 4,7 C 4,4 C 3,9 C 97 % 983,9 hPa 0,0 l/m 0 min 0 min 0 W/m 6,4 km/h (2 Bft) 97,87 %
30.10.2018 06:14 4,7 C 4,4 C 3,9 C 97 % 983,8 hPa 0,0 l/m 0 min 0 min 0 W/m 3,2 km/h (1 Bft) 100,00 %
30.10.2018 06:16 4,7 C 4,4 C 3,9 C 97 % 983,8 hPa 0,0 l/m 0 min 0 min 0 W/m 3,2 km/h (1 Bft) 100,00 %
30.10.2018 06:18 4,7 C 4,4 C 4,4 C 97 % 983,9 hPa 0,0 l/m 0 min 0 min 0 W/m 9,7 km/h (2 Bft) 100,00 %
30.10.2018 06:20 4,7 C 4,4 C 4,4 C 97 % 983,9 hPa 0,0 l/m 0 min 0 min 0 W/m 6,4 km/h (2 Bft) 97,87 %
30.10.2018 06:22 4,7 C 4,4 C 4,4 C 97 % 983,9 hPa 0,0 l/m 0 min 0 min 0 W/m 6,4 km/h (2 Bft) 95,83 %
30.10.2018 06:24 4,7 C 4,4 C 4,4 C 97 % 983,9 hPa 0,0 l/m 0 min 0 min 0 W/m 6,4 km/h (2 Bft) 97,87 %
30.10.2018 06:26 4,7 C 4,4 C 4,4 C 97 % 983,9 hPa 0,0 l/m 0 min 0 min 0 W/m 3,2 km/h (1 Bft) 95,65 %
30.10.2018 06:28 4,7 C 4,4 C 4,4 C 97 % 983,9 hPa 0,0 l/m 0 min 0 min 0 W/m 6,4 km/h (2 Bft) 97,87 %
30.10.2018 06:30 4,8 C 4,4 C 4,4 C 97 % 983,9 hPa 0,0 l/m 0 min 0 min 0 W/m 6,4 km/h (2 Bft) 100,00 %
30.10.2018 06:32 4,8 C 4,4 C 4,4 C 97 % 983,9 hPa 0,0 l/m 0 min 0 min 0 W/m 3,2 km/h (1 Bft) 97,87 %
30.10.2018 06:34 4,8 C 4,4 C 4,4 C 97 % 983,9 hPa 0,0 l/m 0 min 0 min 0 W/m 3,2 km/h (1 Bft) 100,00 %
30.10.2018 06:38 4,8 C 4,4 C 4,4 C 97 % 983,9 hPa 0,0 l/m 0 min 0 min 0 W/m 3,2 km/h (1 Bft) 100,00 %
30.10.2018 06:40 4,8 C 4,4 C 4,4 C 97 % 983,9 hPa 0,0 l/m 0 min 0 min 0 W/m 0,0 km/h (0 Bft) 100,00 %
30.10.2018 06:42 4,8 C 4,4 C 4,4 C 97 % 983,9 hPa 0,0 l/m 0 min 0 min 0 W/m 0,0 km/h (0 Bft) 97,87 %
30.10.2018 06:44 4,8 C 4,4 C 4,4 C 97 % 983,9 hPa 0,0 l/m 0 min 0 min 0 W/m 0,0 km/h (0 Bft) 97,87 %
30.10.2018 06:46 4,8 C 4,4 C 4,4 C 97 % 983,9 hPa 0,0 l/m 0 min 0 min 0 W/m 0,0 km/h (0 Bft) 98,11 %
30.10.2018 06:48 4,8 C 4,4 C 4,4 C 97 % 983,9 hPa 0,0 l/m 0 min 0 min 0 W/m 0,0 km/h (0 Bft) 100,00 %
30.10.2018 06:50 4,8 C 4,4 C 4,4 C 97 % 984,1 hPa 0,0 l/m 0 min 0 min 0 W/m 0,0 km/h (0 Bft) 100,00 %
30.10.2018 06:52 4,8 C 4,4 C 4,4 C 97 % 984,0 hPa 0,0 l/m 0 min 0 min 0 W/m 0,0 km/h (0 Bft) 100,00 %
30.10.2018 06:54 4,8 C 4,4 C 4,4 C 97 % 984,0 hPa 0,0 l/m 0 min 0 min 0 W/m 0,0 km/h (0 Bft) 100,00 %
30.10.2018 06:56 4,8 C 4,4 C 4,4 C 97 % 984,1 hPa 0,0 l/m 0 min 0 min 0 W/m 0,0 km/h (0 Bft) 100,00 %
30.10.2018 06:58 4,8 C 4,4 C 4,4 C 97 % 984,1 hPa 0,0 l/m 0 min 0 min 0 W/m 0,0 km/h (0 Bft) 100,00 %
30.10.2018 07:00 4,9 C 4,4 C 4,4 C 97 % 984,1 hPa 0,0 l/m 0 min 0 min 0 W/m 0,0 km/h (0 Bft) 100,00 %
30.10.2018 07:02 4,8 C 4,4 C 4,4 C 97 % 984,1 hPa 0,0 l/m 0 min 0 min 0 W/m 0,0 km/h (0 Bft) 95,74 %
30.10.2018 07:04 4,9 C 4,4 C 4,4 C 97 % 984,1 hPa 0,0 l/m 0 min 0 min 0 W/m 0,0 km/h (0 Bft) 100,00 %
30.10.2018 07:08 4,9 C 4,4 C 4,4 C 97 % 984,1 hPa 0,0 l/m 0 min 0 min 0 W/m 0,0 km/h (0 Bft) 100,00 %
30.10.2018 07:10 4,9 C 4,4 C 4,4 C 97 % 984,1 hPa 0,0 l/m 0 min 0 min 0 W/m 6,4 km/h (2 Bft) 100,00 %
30.10.2018 07:12 4,9 C 4,4 C 4,4 C 97 % 984,1 hPa 0,0 l/m 0 min 0 min 0 W/m 3,2 km/h (1 Bft) 100,00 %
30.10.2018 07:15 4,9 C 4,4 C 4,4 C 97 % 984,1 hPa 0,0 l/m 0 min 0 min 0 W/m 3,2 km/h (1 Bft) 100,00 %
30.10.2018 07:16 4,9 C 4,4 C 4,4 C 97 % 984,1 hPa 0,0 l/m 0 min 0 min 0 W/m 0,0 km/h (0 Bft) 100,00 %
30.10.2018 07:18 5,0 C 4,4 C 4,4 C 97 % 984,1 hPa 0,0 l/m 0 min 0 min 0 W/m 3,2 km/h (1 Bft) 97,87 %
30.10.2018 07:20 5,0 C 4,4 C 4,4 C 97 % 984,1 hPa 0,0 l/m 0 min 0 min 0 W/m 3,2 km/h (1 Bft) 98,31 %
30.10.2018 07:22 5,0 C 4,4 C 4,4 C 97 % 984,1 hPa 0,0 l/m 0 min 0 min 0 W/m 3,2 km/h (1 Bft) 100,00 %
30.10.2018 07:24 5,0 C 4,4 C 4,4 C 97 % 984,2 hPa 0,0 l/m 0 min 0 min 0 W/m 3,2 km/h (1 Bft) 100,00 %
30.10.2018 07:26 5,1 C 4,4 C 4,4 C 97 % 984,1 hPa 0,0 l/m 0 min 0 min 0 W/m 6,4 km/h (2 Bft) 93,62 %
30.10.2018 07:28 5,1 C 4,4 C 4,4 C 97 % 984,1 hPa 0,0 l/m 0 min 0 min 0 W/m 6,4 km/h (2 Bft) 97,83 %
30.10.2018 07:30 5,1 C 4,4 C 4,4 C 97 % 984,1 hPa 0,0 l/m 0 min 0 min 0 W/m 6,4 km/h (2 Bft) 100,00 %
30.10.2018 07:34 5,1 C 4,4 C 4,4 C 97 % 984,2 hPa 0,0 l/m 0 min 0 min 0 W/m 3,2 km/h (1 Bft) 95,92 %
30.10.2018 07:38 5,2 C 5,0 C 4,4 C 97 % 984,1 hPa 0,0 l/m 0 min 0 min 1 W/m 6,4 km/h (2 Bft) 95,70 %
30.10.2018 07:40 5,2 C 5,0 C 4,4 C 97 % 984,2 hPa 0,0 l/m 0 min 0 min 6 W/m 9,7 km/h (2 Bft) 93,62 %
30.10.2018 07:42 5,2 C 5,0 C 4,4 C 97 % 984,2 hPa 0,0 l/m 0 min 0 min 7 W/m 3,2 km/h (1 Bft) 95,74 %
30.10.2018 07:44 5,2 C 5,0 C 4,4 C 97 % 984,2 hPa 0,0 l/m 0 min 0 min 7 W/m 6,4 km/h (2 Bft) 95,74 %
30.10.2018 07:46 5,2 C 5,0 C 4,4 C 97 % 984,2 hPa 0,0 l/m 0 min 0 min 7 W/m 12,9 km/h (3 Bft) 93,62 %
30.10.2018 07:48 5,2 C 5,0 C 4,4 C 97 % 984,2 hPa 0,0 l/m 0 min 0 min 7 W/m 3,2 km/h (1 Bft) 93,62 %
30.10.2018 07:50 5,3 C 5,0 C 4,4 C 97 % 984,2 hPa 0,0 l/m 0 min 0 min 7 W/m 9,7 km/h (2 Bft) 93,48 %
30.10.2018 07:52 5,3 C 5,0 C 4,4 C 97 % 984,2 hPa 0,0 l/m 0 min 0 min 9 W/m 6,4 km/h (2 Bft) 92,86 %
30.10.2018 07:54 5,3 C 5,0 C 4,4 C 97 % 984,3 hPa 0,0 l/m 0 min 0 min 9 W/m 6,4 km/h (2 Bft) 92,00 %
30.10.2018 07:56 5,3 C 5,0 C 4,4 C 97 % 984,4 hPa 0,0 l/m 0 min 0 min 9 W/m 9,7 km/h (2 Bft) 91,49 %
30.10.2018 07:58 5,3 C 5,0 C 4,4 C 97 % 984,4 hPa 0,0 l/m 0 min 0 min 11 W/m 9,7 km/h (2 Bft) 89,36 %
30.10.2018 08:00 5,3 C 5,0 C 4,4 C 97 % 984,5 hPa 0,0 l/m 0 min 0 min 12 W/m 6,4 km/h (2 Bft) 93,62 %
30.10.2018 08:02 5,3 C 5,0 C 4,4 C 98 % 984,4 hPa 0,0 l/m 0 min 0 min 16 W/m 6,4 km/h (2 Bft) 93,62 %
30.10.2018 08:04 5,4 C 5,0 C 4,4 C 98 % 984,4 hPa 0,0 l/m 0 min 0 min 18 W/m 3,2 km/h (1 Bft) 91,30 %
30.10.2018 08:08 5,4 C 5,0 C 4,4 C 98 % 984,5 hPa 0,0 l/m 0 min 0 min 18 W/m 9,7 km/h (2 Bft) 93,62 %
30.10.2018 08:10 5,4 C 5,0 C 4,4 C 98 % 984,5 hPa 0,0 l/m 0 min 0 min 20 W/m 3,2 km/h (1 Bft) 91,49 %
30.10.2018 08:12 5,4 C 5,0 C 4,4 C 98 % 984,6 hPa 0,0 l/m 0 min 0 min 23 W/m 6,4 km/h (2 Bft) 91,49 %
30.10.2018 08:14 5,4 C 5,0 C 4,4 C 98 % 984,6 hPa 0,0 l/m 0 min 0 min 25 W/m 6,4 km/h (2 Bft) 95,65 %
30.10.2018 08:16 5,4 C 5,0 C 4,4 C 98 % 984,6 hPa 0,0 l/m 0 min 0 min 21 W/m 9,7 km/h (2 Bft) 95,74 %
30.10.2018 08:18 5,4 C 5,0 C 4,4 C 98 % 984,6 hPa 0,0 l/m 0 min 0 min 19 W/m 3,2 km/h (1 Bft) 91,49 %
30.10.2018 08:20 5,5 C 5,0 C 5,0 C 98 % 984,7 hPa 0,0 l/m 0 min 0 min 22 W/m 9,7 km/h (2 Bft) 97,87 %
30.10.2018 08:22 5,5 C 5,0 C 5,0 C 98 % 984,7 hPa 0,0 l/m 0 min 0 min 25 W/m 6,4 km/h (2 Bft) 97,87 %
30.10.2018 08:24 5,5 C 5,0 C 5,0 C 98 % 984,8 hPa 0,0 l/m 0 min 0 min 25 W/m 9,7 km/h (2 Bft) 95,92 %
30.10.2018 08:26 5,6 C 5,0 C 5,0 C 98 % 984,9 hPa 0,0 l/m 0 min 0 min 25 W/m 9,7 km/h (2 Bft) 95,65 %
30.10.2018 08:28 5,6 C 5,0 C 5,0 C 98 % 984,9 hPa 0,0 l/m 0 min 0 min 26 W/m 12,9 km/h (3 Bft) 97,87 %
30.10.2018 08:30 5,6 C 5,0 C 5,0 C 98 % 985,0 hPa 0,0 l/m 0 min 0 min 22 W/m 6,4 km/h (2 Bft) 97,87 %
30.10.2018 08:32 5,6 C 5,0 C 5,0 C 98 % 985,0 hPa 0,0 l/m 0 min 0 min 23 W/m 6,4 km/h (2 Bft) 95,74 %
30.10.2018 08:34 5,6 C 5,0 C 5,0 C 98 % 985,0 hPa 0,0 l/m 0 min 0 min 26 W/m 9,7 km/h (2 Bft) 97,87 %
30.10.2018 08:38 5,6 C 5,0 C 5,0 C 98 % 985,0 hPa 0,0 l/m 0 min 0 min 35 W/m 9,7 km/h (2 Bft) 96,77 %
30.10.2018 08:40 5,7 C 5,0 C 5,0 C 98 % 985,1 hPa 0,0 l/m 0 min 0 min 45 W/m 12,9 km/h (3 Bft) 97,87 %
30.10.2018 08:42 5,7 C 5,6 C 5,0 C 98 % 985,1 hPa 0,0 l/m 0 min 0 min 54 W/m 12,9 km/h (3 Bft) 97,87 %
30.10.2018 08:44 5,7 C 5,6 C 5,0 C 98 % 985,1 hPa 0,0 l/m 0 min 0 min 55 W/m 9,7 km/h (2 Bft) 100,00 %
30.10.2018 08:46 5,7 C 5,6 C 5,0 C 98 % 985,1 hPa 0,0 l/m 0 min 0 min 56 W/m 12,9 km/h (3 Bft) 97,87 %
30.10.2018 08:48 5,7 C 5,6 C 5,0 C 98 % 985,1 hPa 0,0 l/m 0 min 0 min 60 W/m 6,4 km/h (2 Bft) 100,00 %
30.10.2018 08:50 5,8 C 5,6 C 5,0 C 98 % 985,2 hPa 0,0 l/m 0 min 0 min 67 W/m 12,9 km/h (3 Bft) 100,00 %
30.10.2018 08:52 5,8 C 5,6 C 5,0 C 98 % 985,2 hPa 0,0 l/m 0 min 0 min 63 W/m 6,4 km/h (2 Bft) 100,00 %
30.10.2018 08:54 5,8 C 5,6 C 5,0 C 98 % 985,3 hPa 0,0 l/m 0 min 0 min 59 W/m 6,4 km/h (2 Bft) 97,87 %
30.10.2018 08:56 5,8 C 5,6 C 5,0 C 98 % 985,3 hPa 0,0 l/m 0 min 0 min 62 W/m 9,7 km/h (2 Bft) 100,00 %
30.10.2018 08:58 5,8 C 5,6 C 5,0 C 98 % 985,3 hPa 0,0 l/m 0 min 0 min 59 W/m 9,7 km/h (2 Bft) 100,00 %
30.10.2018 09:00 5,8 C 5,6 C 5,0 C 98 % 985,3 hPa 0,0 l/m 0 min 0 min 50 W/m 12,9 km/h (3 Bft) 100,00 %
30.10.2018 09:02 5,9 C 5,6 C 5,0 C 98 % 985,3 hPa 0,0 l/m 0 min 0 min 55 W/m 12,9 km/h (3 Bft) 100,00 %
30.10.2018 09:04 5,9 C 5,6 C 5,0 C 98 % 985,3 hPa 0,0 l/m 0 min 2 min 60 W/m 6,4 km/h (2 Bft) 97,87 %
30.10.2018 09:08 5,9 C 5,6 C 5,0 C 98 % 985,4 hPa 0,0 l/m 0 min 0 min 61 W/m 6,4 km/h (2 Bft) 100,00 %
30.10.2018 09:10 5,9 C 5,6 C 5,0 C 98 % 985,4 hPa 0,0 l/m 0 min 0 min 58 W/m 9,7 km/h (2 Bft) 97,87 %
30.10.2018 09:12 6,0 C 5,6 C 5,0 C 98 % 985,4 hPa 0,0 l/m 0 min 0 min 59 W/m 9,7 km/h (2 Bft) 97,83 %
30.10.2018 09:14 6,0 C 5,6 C 5,0 C 98 % 985,4 hPa 0,0 l/m 0 min 0 min 62 W/m 6,4 km/h (2 Bft) 100,00 %
30.10.2018 09:16 6,0 C 5,6 C 5,0 C 98 % 985,4 hPa 0,0 l/m 0 min 0 min 63 W/m 6,4 km/h (2 Bft) 100,00 %
30.10.2018 09:18 6,1 C 5,6 C 5,6 C 98 % 985,4 hPa 0,0 l/m 0 min 0 min 67 W/m 6,4 km/h (2 Bft) 97,87 %
30.10.2018 09:20 6,1 C 5,6 C 5,6 C 98 % 985,5 hPa 0,0 l/m 0 min 0 min 71 W/m 6,4 km/h (2 Bft) 100,00 %
30.10.2018 09:22 6,1 C 6,1 C 5,6 C 98 % 985,5 hPa 0,0 l/m 0 min 0 min 77 W/m 6,4 km/h (2 Bft) 100,00 %
30.10.2018 09:24 6,1 C 6,1 C 5,6 C 98 % 985,6 hPa 0,0 l/m 0 min 0 min 82 W/m 6,4 km/h (2 Bft) 100,00 %
30.10.2018 09:26 6,2 C 6,1 C 5,6 C 98 % 985,5 hPa 0,0 l/m 0 min 0 min 83 W/m 6,4 km/h (2 Bft) 100,00 %
30.10.2018 09:28 6,2 C 6,1 C 5,6 C 98 % 985,6 hPa 0,0 l/m 0 min 2 min 78 W/m 6,4 km/h (2 Bft) 100,00 %
30.10.2018 09:30 6,2 C 6,1 C 5,6 C 98 % 985,6 hPa 0,0 l/m 0 min 2 min 69 W/m 9,7 km/h (2 Bft) 97,87 %
30.10.2018 09:32 6,2 C 6,1 C 5,6 C 98 % 985,7 hPa 0,0 l/m 0 min 2 min 65 W/m 6,4 km/h (2 Bft) 100,00 %
30.10.2018 09:34 6,2 C 6,1 C 5,6 C 98 % 985,8 hPa 0,0 l/m 0 min 0 min 63 W/m 6,4 km/h (2 Bft) 100,00 %
30.10.2018 09:38 6,3 C 6,1 C 5,6 C 98 % 985,8 hPa 0,0 l/m 0 min 0 min 61 W/m 6,4 km/h (2 Bft) 100,00 %
30.10.2018 09:40 6,3 C 6,1 C 5,6 C 98 % 985,9 hPa 0,0 l/m 0 min 0 min 57 W/m 6,4 km/h (2 Bft) 100,00 %
30.10.2018 09:42 6,3 C 6,1 C 5,6 C 98 % 985,8 hPa 0,0 l/m 0 min 0 min 53 W/m 3,2 km/h (1 Bft) 100,00 %
30.10.2018 09:44 6,4 C 6,1 C 5,6 C 98 % 985,9 hPa 0,0 l/m 0 min 0 min 51 W/m 9,7 km/h (2 Bft) 97,87 %
30.10.2018 09:46 6,4 C 6,1 C 5,6 C 98 % 985,9 hPa 0,0 l/m 0 min 0 min 49 W/m 6,4 km/h (2 Bft) 97,83 %
30.10.2018 09:48 6,4 C 6,1 C 5,6 C 98 % 986,0 hPa 0,0 l/m 0 min 2 min 49 W/m 6,4 km/h (2 Bft) 100,00 %
30.10.2018 09:50 6,4 C 6,1 C 5,6 C 98 % 986,0 hPa 0,0 l/m 0 min 2 min 54 W/m 3,2 km/h (1 Bft) 100,00 %
30.10.2018 09:52 6,4 C 6,1 C 5,6 C 98 % 986,0 hPa 0,0 l/m 0 min 2 min 57 W/m 9,7 km/h (2 Bft) 97,87 %
30.10.2018 09:54 6,4 C 6,1 C 5,6 C 98 % 986,0 hPa 0,0 l/m 0 min 2 min 65 W/m 9,7 km/h (2 Bft) 100,00 %
30.10.2018 09:56 6,4 C 6,1 C 5,6 C 98 % 986,0 hPa 0,0 l/m 0 min 2 min 70 W/m 3,2 km/h (1 Bft) 97,87 %
30.10.2018 09:58 6,4 C 6,1 C 5,6 C 98 % 986,0 hPa 0,0 l/m 0 min 2 min 70 W/m 6,4 km/h (2 Bft) 95,74 %
30.10.2018 10:00 6,5 C 6,1 C 5,6 C 98 % 986,0 hPa 0,0 l/m 0 min 2 min 76 W/m 9,7 km/h (2 Bft) 97,83 %
30.10.2018 10:02 6,5 C 6,1 C 5,6 C 98 % 986,0 hPa 0,0 l/m 0 min 2 min 83 W/m 6,4 km/h (2 Bft) 95,74 %
30.10.2018 10:04 6,6 C 6,1 C 5,6 C 98 % 986,0 hPa 0,0 l/m 0 min 2 min 78 W/m 3,2 km/h (1 Bft) 95,74 %
30.10.2018 10:08 6,6 C 6,1 C 5,6 C 98 % 986,0 hPa 0,0 l/m 0 min 0 min 83 W/m 12,9 km/h (3 Bft) 96,81 %
30.10.2018 10:10 6,6 C 6,1 C 5,6 C 98 % 986,0 hPa 0,0 l/m 0 min 0 min 88 W/m 9,7 km/h (2 Bft) 93,62 %
30.10.2018 10:12 6,6 C 6,1 C 5,6 C 98 % 986,0 hPa 0,0 l/m 0 min 0 min 90 W/m 3,2 km/h (1 Bft) 93,48 %
30.10.2018 10:14 6,6 C 6,1 C 5,6 C 98 % 986,1 hPa 0,0 l/m 0 min 0 min 95 W/m 6,4 km/h (2 Bft) 97,87 %
30.10.2018 10:16 6,7 C 6,7 C 5,6 C 98 % 986,1 hPa 0,0 l/m 0 min 0 min 102 W/m 3,2 km/h (1 Bft) 95,74 %
30.10.2018 10:18 6,7 C 6,7 C 5,6 C 98 % 986,1 hPa 0,0 l/m 0 min 0 min 116 W/m 3,2 km/h (1 Bft) 95,74 %
30.10.2018 10:20 6,7 C 6,7 C 6,1 C 98 % 986,1 hPa 0,0 l/m 0 min 0 min 131 W/m 12,9 km/h (3 Bft) 95,74 %
30.10.2018 10:22 6,7 C 6,7 C 6,1 C 98 % 986,2 hPa 0,0 l/m 0 min 0 min 140 W/m 3,2 km/h (1 Bft) 96,00 %
30.10.2018 10:24 6,8 C 6,7 C 6,1 C 98 % 986,2 hPa 0,0 l/m 0 min 0 min 137 W/m 9,7 km/h (2 Bft) 95,74 %
30.10.2018 10:26 6,8 C 6,7 C 6,1 C 98 % 986,2 hPa 0,0 l/m 0 min 0 min 129 W/m 12,9 km/h (3 Bft) 93,62 %
30.10.2018 10:28 6,9 C 6,7 C 6,1 C 98 % 986,2 hPa 0,0 l/m 0 min 0 min 119 W/m 9,7 km/h (2 Bft) 93,62 %
30.10.2018 10:30 6,9 C 6,7 C 6,1 C 98 % 986,1 hPa 0,0 l/m 0 min 2 min 112 W/m 6,4 km/h (2 Bft) 91,49 %
30.10.2018 10:32 6,9 C 6,7 C 6,1 C 98 % 986,2 hPa 0,0 l/m 0 min 2 min 103 W/m 12,9 km/h (3 Bft) 93,62 %
30.10.2018 10:34 7,0 C 6,7 C 6,1 C 98 % 986,2 hPa 0,0 l/m 0 min 0 min 82 W/m 9,7 km/h (2 Bft) 93,48 %
30.10.2018 10:38 7,1 C 7,2 C 6,1 C 98 % 986,3 hPa 0,0 l/m 0 min 0 min 153 W/m 16,1 km/h (3 Bft) 95,74 %
30.10.2018 10:40 7,1 C 7,2 C 6,1 C 98 % 986,3 hPa 0,0 l/m 2 min 0 min 213 W/m 19,3 km/h (3 Bft) 95,74 %
30.10.2018 10:42 7,1 C 7,2 C 6,1 C 98 % 986,3 hPa 0,0 l/m 2 min 0 min 203 W/m 9,7 km/h (2 Bft) 95,74 %
30.10.2018 10:44 7,2 C 7,2 C 6,7 C 98 % 986,3 hPa 0,0 l/m 0 min 0 min 180 W/m 9,7 km/h (2 Bft) 95,74 %
30.10.2018 10:46 7,2 C 7,2 C 6,1 C 98 % 986,5 hPa 0,0 l/m 0 min 0 min 136 W/m 12,9 km/h (3 Bft) 97,83 %
30.10.2018 10:48 7,2 C 7,2 C 6,1 C 98 % 986,5 hPa 0,0 l/m 0 min 0 min 127 W/m 16,1 km/h (3 Bft) 97,87 %
30.10.2018 10:50 7,2 C 7,2 C 6,1 C 98 % 986,5 hPa 0,0 l/m 0 min 0 min 163 W/m 16,1 km/h (3 Bft) 95,74 %
30.10.2018 10:52 7,2 C 7,2 C 6,1 C 98 % 986,5 hPa 0,0 l/m 0 min 0 min 162 W/m 6,4 km/h (2 Bft) 97,87 %
30.10.2018 10:54 7,3 C 7,2 C 6,7 C 98 % 986,4 hPa 0,0 l/m 2 min 0 min 194 W/m 16,1 km/h (3 Bft) 97,56 %
30.10.2018 10:56 7,3 C 7,2 C 6,7 C 98 % 986,5 hPa 0,0 l/m 0 min 0 min 190 W/m 19,3 km/h (3 Bft) 95,74 %
30.10.2018 10:58 7,3 C 7,2 C 6,7 C 98 % 986,5 hPa 0,0 l/m 0 min 0 min 149 W/m 16,1 km/h (3 Bft) 97,87 %
30.10.2018 11:00 7,3 C 7,2 C 6,7 C 98 % 986,5 hPa 0,0 l/m 0 min 0 min 138 W/m 16,1 km/h (3 Bft) 93,48 %
30.10.2018 11:02 7,3 C 7,2 C 6,7 C 98 % 986,4 hPa 0,0 l/m 0 min 0 min 116 W/m 16,1 km/h (3 Bft) 93,62 %
30.10.2018 11:04 7,3 C 6,7 C 6,1 C 98 % 986,5 hPa 0,0 l/m 0 min 0 min 98 W/m 19,3 km/h (3 Bft) 95,74 %
30.10.2018 11:08 7,2 C 7,2 C 6,1 C 98 % 986,5 hPa 0,0 l/m 0 min 0 min 104 W/m 16,1 km/h (3 Bft) 97,87 %
30.10.2018 11:10 7,2 C 7,2 C 6,1 C 98 % 986,6 hPa 0,0 l/m 0 min 0 min 144 W/m 22,5 km/h (4 Bft) 95,74 %
30.10.2018 11:12 7,2 C 7,2 C 6,1 C 98 % 986,7 hPa 0,0 l/m 0 min 0 min 160 W/m 19,3 km/h (3 Bft) 91,30 %
30.10.2018 11:14 7,2 C 7,2 C 6,7 C 98 % 986,7 hPa 0,0 l/m 0 min 0 min 160 W/m 16,1 km/h (3 Bft) 95,74 %
30.10.2018 11:16 7,2 C 7,2 C 6,7 C 98 % 986,8 hPa 0,0 l/m 0 min 0 min 154 W/m 19,3 km/h (3 Bft) 90,24 %
30.10.2018 11:18 7,2 C 6,7 C 6,7 C 98 % 986,8 hPa 0,0 l/m 0 min 0 min 130 W/m 25,7 km/h (4 Bft) 94,34 %
30.10.2018 11:20 7,2 C 6,7 C 6,7 C 98 % 986,8 hPa 0,0 l/m 0 min 0 min 112 W/m 12,9 km/h (3 Bft) 93,10 %
30.10.2018 11:22 7,2 C 6,7 C 6,7 C 98 % 986,9 hPa 0,0 l/m 0 min 0 min 85 W/m 9,7 km/h (2 Bft) 94,29 %
30.10.2018 11:24 7,2 C 6,7 C 6,7 C 98 % 986,8 hPa 0,0 l/m 0 min 0 min 51 W/m 9,7 km/h (2 Bft) 87,76 %
30.10.2018 11:26 7,2 C 6,7 C 6,1 C 98 % 986,8 hPa 0,0 l/m 0 min 0 min 36 W/m 9,7 km/h (2 Bft) 95,74 %
30.10.2018 11:28 7,2 C 6,7 C 6,1 C 98 % 986,8 hPa 0,0 l/m 0 min 0 min 32 W/m 9,7 km/h (2 Bft) 87,23 %
30.10.2018 11:30 7,2 C 6,1 C 6,1 C 98 % 986,8 hPa 0,0 l/m 0 min 0 min 27 W/m 9,7 km/h (2 Bft) 93,62 %
30.10.2018 11:32 7,2 C 6,1 C 6,1 C 98 % 986,7 hPa 0,0 l/m 0 min 0 min 25 W/m 16,1 km/h (3 Bft) 91,49 %
30.10.2018 11:34 7,2 C 6,1 C 6,1 C 98 % 986,8 hPa 0,0 l/m 0 min 0 min 21 W/m 12,9 km/h (3 Bft) 89,13 %
30.10.2018 11:38 7,1 C 6,1 C 6,1 C 98 % 986,8 hPa 0,0 l/m 0 min 0 min 24 W/m 16,1 km/h (3 Bft) 92,55 %
30.10.2018 11:40 7,1 C 6,1 C 6,1 C 98 % 986,8 hPa 0,0 l/m 0 min 0 min 26 W/m 19,3 km/h (3 Bft) 95,74 %
30.10.2018 11:42 7,0 C 6,1 C 6,1 C 98 % 986,9 hPa 0,0 l/m 0 min 0 min 27 W/m 16,1 km/h (3 Bft) 89,36 %
30.10.2018 11:44 6,9 C 6,1 C 6,1 C 97 % 986,9 hPa 0,0 l/m 0 min 0 min 31 W/m 16,1 km/h (3 Bft) 89,36 %
30.10.2018 11:46 6,9 C 6,1 C 6,1 C 97 % 987,0 hPa 0,0 l/m 0 min 0 min 37 W/m 16,1 km/h (3 Bft) 89,13 %
30.10.2018 11:48 6,9 C 6,1 C 6,1 C 97 % 987,0 hPa 0,0 l/m 0 min 0 min 47 W/m 12,9 km/h (3 Bft) 95,74 %
30.10.2018 11:50 6,8 C 6,1 C 6,1 C 97 % 987,0 hPa 0,0 l/m 0 min 0 min 49 W/m 16,1 km/h (3 Bft) 95,74 %
30.10.2018 11:52 6,8 C 5,6 C 6,1 C 97 % 987,0 hPa 0,0 l/m 0 min 0 min 43 W/m 19,3 km/h (3 Bft) 95,74 %
30.10.2018 11:54 6,8 C 5,6 C 6,7 C 97 % 986,9 hPa 0,0 l/m 0 min 0 min 32 W/m 16,1 km/h (3 Bft) 95,74 %
30.10.2018 11:56 6,8 C 5,6 C 6,1 C 96 % 987,0 hPa 0,0 l/m 0 min 0 min 28 W/m 19,3 km/h (3 Bft) 95,74 %
30.10.2018 11:58 6,8 C 5,6 C 6,1 C 96 % 987,1 hPa 0,0 l/m 0 min 2 min 31 W/m 19,3 km/h (3 Bft) 89,13 %
30.10.2018 12:00 6,8 C 5,6 C 6,1 C 95 % 987,0 hPa 0,0 l/m 0 min 0 min 40 W/m 16,1 km/h (3 Bft) 89,36 %
30.10.2018 12:02 6,8 C 5,6 C 6,1 C 95 % 987,0 hPa 0,0 l/m 0 min 0 min 50 W/m 16,1 km/h (3 Bft) 95,83 %
30.10.2018 12:04 6,9 C 5,6 C 6,1 C 94 % 987,0 hPa 0,0 l/m 0 min 0 min 52 W/m 12,9 km/h (3 Bft) 100,00 %
30.10.2018 12:08 6,9 C 5,6 C 6,1 C 94 % 987,2 hPa 0,0 l/m 0 min 0 min 50 W/m 16,1 km/h (3 Bft) 92,55 %
30.10.2018 12:10 6,9 C 5,6 C 6,1 C 93 % 987,2 hPa 0,0 l/m 0 min 0 min 62 W/m 19,3 km/h (3 Bft) 95,65 %
30.10.2018 12:12 6,8 C 5,6 C 6,1 C 93 % 987,2 hPa 0,0 l/m 0 min 0 min 70 W/m 16,1 km/h (3 Bft) 100,00 %
30.10.2018 12:14 6,8 C 5,6 C 6,1 C 92 % 987,2 hPa 0,0 l/m 0 min 0 min 81 W/m 22,5 km/h (4 Bft) 93,62 %
30.10.2018 12:16 6,8 C 5,6 C 6,1 C 92 % 987,1 hPa 0,0 l/m 0 min 0 min 91 W/m 16,1 km/h (3 Bft) 97,87 %
30.10.2018 12:18 6,8 C 5,6 C 6,1 C 91 % 987,2 hPa 0,0 l/m 0 min 0 min 96 W/m 19,3 km/h (3 Bft) 97,87 %
30.10.2018 12:20 6,8 C 5,6 C 6,1 C 91 % 987,2 hPa 0,0 l/m 0 min 0 min 86 W/m 22,5 km/h (4 Bft) 100,00 %
30.10.2018 12:22 6,9 C 5,6 C 6,1 C 90 % 987,2 hPa 0,0 l/m 0 min 0 min 71 W/m 16,1 km/h (3 Bft) 100,00 %
30.10.2018 12:24 6,9 C 5,6 C 6,1 C 90 % 987,2 hPa 0,0 l/m 0 min 0 min 66 W/m 9,7 km/h (2 Bft) 97,87 %
30.10.2018 12:26 6,9 C 6,1 C 6,1 C 89 % 987,2 hPa 0,0 l/m 0 min 0 min 77 W/m 9,7 km/h (2 Bft) 100,00 %
30.10.2018 12:28 6,9 C 6,1 C 6,1 C 89 % 987,1 hPa 0,0 l/m 0 min 0 min 81 W/m 19,3 km/h (3 Bft) 100,00 %
30.10.2018 12:30 6,9 C 6,1 C 6,1 C 89 % 987,3 hPa 0,0 l/m 0 min 0 min 76 W/m 16,1 km/h (3 Bft) 95,74 %
30.10.2018 12:32 6,9 C 5,6 C 6,1 C 89 % 987,3 hPa 0,0 l/m 0 min 0 min 87 W/m 22,5 km/h (4 Bft) 95,65 %
30.10.2018 12:34 6,9 C 5,6 C 6,1 C 89 % 987,4 hPa 0,0 l/m 0 min 0 min 75 W/m 29,0 km/h (5 Bft) 97,87 %
30.10.2018 12:38 6,9 C 5,6 C 6,1 C 88 % 987,4 hPa 0,0 l/m 0 min 0 min 53 W/m 16,1 km/h (3 Bft) 97,87 %
30.10.2018 12:40 6,9 C 5,6 C 6,1 C 87 % 987,3 hPa 0,0 l/m 0 min 0 min 41 W/m 19,3 km/h (3 Bft) 95,74 %
30.10.2018 12:42 6,8 C 5,6 C 6,1 C 87 % 987,4 hPa 0,0 l/m 0 min 0 min 40 W/m 19,3 km/h (3 Bft) 93,62 %
30.10.2018 12:44 6,8 C 5,6 C 6,1 C 87 % 987,4 hPa 0,0 l/m 0 min 0 min 49 W/m 25,7 km/h (4 Bft) 97,83 %
30.10.2018 12:46 6,8 C 5,6 C 6,1 C 86 % 987,4 hPa 0,0 l/m 0 min 0 min 46 W/m 19,3 km/h (3 Bft) 93,62 %
30.10.2018 12:48 6,8 C 5,6 C 6,1 C 86 % 987,4 hPa 0,0 l/m 0 min 0 min 53 W/m 12,9 km/h (3 Bft) 95,74 %
30.10.2018 12:50 6,8 C 5,6 C 6,1 C 85 % 987,5 hPa 0,0 l/m 0 min 0 min 60 W/m 9,7 km/h (2 Bft) 91,49 %
30.10.2018 12:52 6,8 C 5,6 C 5,6 C 85 % 987,5 hPa 0,0 l/m 0 min 0 min 57 W/m 6,4 km/h (2 Bft) 95,74 %
30.10.2018 12:54 6,8 C 5,6 C 5,6 C 85 % 987,6 hPa 0,0 l/m 0 min 0 min 63 W/m 22,5 km/h (4 Bft) 80,85 %
30.10.2018 12:56 6,8 C 5,6 C 6,1 C 85 % 987,6 hPa 0,0 l/m 0 min 0 min 66 W/m 16,1 km/h (3 Bft) 84,78 %
30.10.2018 12:58 6,8 C 5,6 C 6,1 C 84 % 987,6 hPa 0,0 l/m 0 min 0 min 73 W/m 19,3 km/h (3 Bft) 89,36 %
30.10.2018 13:00 6,8 C 5,6 C 6,1 C 83 % 987,7 hPa 0,0 l/m 0 min 0 min 79 W/m 22,5 km/h (4 Bft) 93,62 %
30.10.2018 13:02 6,8 C 5,6 C 6,1 C 83 % 987,7 hPa 0,0 l/m 0 min 0 min 84 W/m 19,3 km/h (3 Bft) 93,62 %
30.10.2018 13:04 6,8 C 5,6 C 6,1 C 82 % 987,7 hPa 0,0 l/m 0 min 0 min 85 W/m 29,0 km/h (5 Bft) 93,62 %
30.10.2018 13:08 6,8 C 5,6 C 6,1 C 81 % 987,7 hPa 0,0 l/m 0 min 0 min 102 W/m 38,6 km/h (5 Bft) 94,62 %
30.10.2018 13:10 6,8 C 5,6 C 6,1 C 81 % 987,7 hPa 0,0 l/m 0 min 0 min 102 W/m 32,2 km/h (5 Bft) 91,49 %
30.10.2018 13:12 6,8 C 5,6 C 6,1 C 80 % 987,7 hPa 0,0 l/m 0 min 0 min 98 W/m 22,5 km/h (4 Bft) 93,62 %
30.10.2018 13:14 6,8 C 5,6 C 6,1 C 80 % 987,7 hPa 0,0 l/m 0 min 0 min 93 W/m 22,5 km/h (4 Bft) 93,62 %
30.10.2018 13:16 6,8 C 6,1 C 6,1 C 80 % 987,7 hPa 0,0 l/m 0 min 0 min 113 W/m 22,5 km/h (4 Bft) 97,87 %
30.10.2018 13:18 6,8 C 6,7 C 6,1 C 80 % 987,7 hPa 0,0 l/m 0 min 0 min 149 W/m 19,3 km/h (3 Bft) 97,83 %
30.10.2018 13:20 6,9 C 7,2 C 6,1 C 80 % 987,7 hPa 0,0 l/m 0 min 0 min 172 W/m 25,7 km/h (4 Bft) 97,87 %
30.10.2018 13:22 6,9 C 7,2 C 6,7 C 79 % 987,6 hPa 0,0 l/m 2 min 0 min 213 W/m 19,3 km/h (3 Bft) 95,74 %
30.10.2018 13:24 6,9 C 7,2 C 6,7 C 79 % 987,7 hPa 0,0 l/m 2 min 0 min 231 W/m 29,0 km/h (5 Bft) 97,87 %
30.10.2018 13:26 7,0 C 7,2 C 6,7 C 79 % 987,8 hPa 0,0 l/m 2 min 0 min 233 W/m 22,5 km/h (4 Bft) 97,87 %
30.10.2018 13:28 7,1 C 7,2 C 6,7 C 79 % 987,8 hPa 0,0 l/m 2 min 0 min 206 W/m 16,1 km/h (3 Bft) 93,62 %
30.10.2018 13:30 7,1 C 7,2 C 6,7 C 79 % 987,8 hPa 0,0 l/m 0 min 0 min 175 W/m 19,3 km/h (3 Bft) 97,83 %
30.10.2018 13:32 7,1 C 7,2 C 6,7 C 78 % 987,7 hPa 0,0 l/m 0 min 0 min 161 W/m 22,5 km/h (4 Bft) 95,74 %
30.10.2018 13:34 7,2 C 7,2 C 6,7 C 78 % 987,7 hPa 0,0 l/m 0 min 0 min 155 W/m 16,1 km/h (3 Bft) 95,74 %
30.10.2018 13:38 7,2 C 7,2 C 6,1 C 79 % 987,8 hPa 0,0 l/m 0 min 0 min 136 W/m 12,9 km/h (3 Bft) 97,87 %
30.10.2018 13:40 7,2 C 6,7 C 6,1 C 79 % 987,7 hPa 0,0 l/m 0 min 0 min 95 W/m 19,3 km/h (3 Bft) 97,87 %
30.10.2018 13:42 7,2 C 6,7 C 6,1 C 79 % 987,8 hPa 0,0 l/m 0 min 0 min 86 W/m 16,1 km/h (3 Bft) 97,83 %
30.10.2018 13:44 7,2 C 6,7 C 6,1 C 79 % 987,8 hPa 0,0 l/m 0 min 0 min 82 W/m 16,1 km/h (3 Bft) 100,00 %
30.10.2018 13:46 7,2 C 6,7 C 6,1 C 79 % 987,7 hPa 0,0 l/m 0 min 0 min 76 W/m 16,1 km/h (3 Bft) 100,00 %
30.10.2018 13:48 7,1 C 6,7 C 5,6 C 79 % 987,7 hPa 0,0 l/m 0 min 0 min 71 W/m 12,9 km/h (3 Bft) 100,00 %
30.10.2018 13:50 7,1 C 6,7 C 6,1 C 79 % 987,8 hPa 0,0 l/m 0 min 0 min 61 W/m 19,3 km/h (3 Bft) 100,00 %
30.10.2018 13:52 7,0 C 6,7 C 5,6 C 79 % 987,8 hPa 0,0 l/m 0 min 0 min 46 W/m 16,1 km/h (3 Bft) 100,00 %
30.10.2018 13:54 7,0 C 6,1 C 5,6 C 79 % 987,7 hPa 0,0 l/m 0 min 0 min 51 W/m 12,9 km/h (3 Bft) 100,00 %
30.10.2018 13:56 6,9 C 6,1 C 5,6 C 79 % 987,8 hPa 0,0 l/m 0 min 0 min 58 W/m 19,3 km/h (3 Bft) 97,87 %
30.10.2018 13:58 6,9 C 6,1 C 5,6 C 79 % 987,8 hPa 0,0 l/m 0 min 0 min 50 W/m 22,5 km/h (4 Bft) 100,00 %
30.10.2018 14:00 6,8 C 6,1 C 5,6 C 79 % 987,8 hPa 0,0 l/m 0 min 0 min 44 W/m 22,5 km/h (4 Bft) 100,00 %
30.10.2018 14:02 6,8 C 6,1 C 5,6 C 79 % 987,7 hPa 0,0 l/m 0 min 0 min 40 W/m 19,3 km/h (3 Bft) 97,92 %
30.10.2018 14:04 6,7 C 6,1 C 5,6 C 79 % 987,7 hPa 0,0 l/m 0 min 0 min 35 W/m 16,1 km/h (3 Bft) 100,00 %
30.10.2018 14:08 6,6 C 5,6 C 5,6 C 79 % 987,8 hPa 0,0 l/m 0 min 0 min 41 W/m 22,5 km/h (4 Bft) 98,92 %
30.10.2018 14:10 6,5 C 5,6 C 5,6 C 79 % 987,8 hPa 0,0 l/m 0 min 0 min 46 W/m 12,9 km/h (3 Bft) 100,00 %
30.10.2018 14:12 6,4 C 5,6 C 5,0 C 80 % 987,8 hPa 0,0 l/m 0 min 0 min 40 W/m 22,5 km/h (4 Bft) 100,00 %
30.10.2018 14:14 6,4 C 5,6 C 5,0 C 80 % 987,7 hPa 0,0 l/m 0 min 0 min 39 W/m 22,5 km/h (4 Bft) 97,87 %
30.10.2018 14:16 6,3 C 5,6 C 5,0 C 80 % 987,7 hPa 0,0 l/m 0 min 0 min 39 W/m 19,3 km/h (3 Bft) 100,00 %
30.10.2018 14:18 6,3 C 5,6 C 5,0 C 79 % 987,7 hPa 0,0 l/m 0 min 0 min 44 W/m 19,3 km/h (3 Bft) 97,87 %
30.10.2018 14:20 6,2 C 5,6 C 5,0 C 80 % 987,8 hPa 0,0 l/m 0 min 0 min 46 W/m 16,1 km/h (3 Bft) 97,87 %
30.10.2018 14:22 6,2 C 5,6 C 5,0 C 80 % 987,7 hPa 0,0 l/m 0 min 0 min 47 W/m 22,5 km/h (4 Bft) 97,87 %
30.10.2018 14:24 6,2 C 5,6 C 5,0 C 79 % 987,7 hPa 0,0 l/m 0 min 0 min 51 W/m 22,5 km/h (4 Bft) 95,74 %
30.10.2018 14:26 6,2 C 5,6 C 5,0 C 80 % 987,7 hPa 0,0 l/m 0 min 0 min 53 W/m 16,1 km/h (3 Bft) 97,87 %
30.10.2018 14:28 6,1 C 5,6 C 5,0 C 80 % 987,7 hPa 0,0 l/m 0 min 0 min 54 W/m 25,7 km/h (4 Bft) 97,83 %
30.10.2018 14:30 6,1 C 5,6 C 5,0 C 79 % 987,7 hPa 0,0 l/m 0 min 0 min 60 W/m 29,0 km/h (5 Bft) 97,87 %
30.10.2018 14:32 6,1 C 5,6 C 5,0 C 80 % 987,7 hPa 0,0 l/m 0 min 0 min 45 W/m 16,1 km/h (3 Bft) 97,87 %
30.10.2018 14:34 6,1 C 5,6 C 5,0 C 80 % 987,7 hPa 0,0 l/m 0 min 0 min 33 W/m 16,1 km/h (3 Bft) 97,87 %
30.10.2018 14:38 6,1 C 5,6 C 5,0 C 80 % 987,6 hPa 0,0 l/m 0 min 0 min 29 W/m 22,5 km/h (4 Bft) 96,81 %
30.10.2018 14:40 6,0 C 5,6 C 5,0 C 80 % 987,7 hPa 0,0 l/m 0 min 0 min 30 W/m 12,9 km/h (3 Bft) 95,65 %
30.10.2018 14:42 6,0 C 5,6 C 5,0 C 80 % 987,7 hPa 0,0 l/m 0 min 0 min 28 W/m 19,3 km/h (3 Bft) 97,87 %
30.10.2018 14:44 5,9 C 5,6 C 5,0 C 80 % 987,7 hPa 0,0 l/m 0 min 0 min 26 W/m 25,7 km/h (4 Bft) 97,87 %
30.10.2018 14:46 5,9 C 5,6 C 5,0 C 80 % 987,7 hPa 0,0 l/m 0 min 0 min 29 W/m 16,1 km/h (3 Bft) 95,74 %
30.10.2018 14:48 5,9 C 5,6 C 5,0 C 80 % 987,7 hPa 0,0 l/m 0 min 0 min 34 W/m 16,1 km/h (3 Bft) 97,87 %
30.10.2018 14:50 5,9 C 5,6 C 5,0 C 80 % 987,7 hPa 0,0 l/m 0 min 0 min 43 W/m 16,1 km/h (3 Bft) 97,87 %
30.10.2018 14:52 5,8 C 5,6 C 5,0 C 81 % 987,8 hPa 0,0 l/m 0 min 0 min 48 W/m 19,3 km/h (3 Bft) 97,83 %
30.10.2018 14:54 5,8 C 5,0 C 5,0 C 81 % 987,8 hPa 0,0 l/m 0 min 0 min 47 W/m 22,5 km/h (4 Bft) 96,00 %
30.10.2018 14:56 5,8 C 5,0 C 4,4 C 81 % 987,8 hPa 0,0 l/m 0 min 2 min 43 W/m 12,9 km/h (3 Bft) 95,74 %
30.10.2018 14:58 5,8 C 5,0 C 4,4 C 81 % 987,8 hPa 0,0 l/m 0 min 0 min 39 W/m 16,1 km/h (3 Bft) 97,87 %
30.10.2018 15:00 5,7 C 5,0 C 4,4 C 82 % 987,8 hPa 0,0 l/m 0 min 2 min 38 W/m 25,7 km/h (4 Bft) 95,74 %
30.10.2018 15:02 5,7 C 4,4 C 4,4 C 82 % 987,8 hPa 0,0 l/m 0 min 2 min 40 W/m 19,3 km/h (3 Bft) 100,00 %
30.10.2018 15:04 5,7 C 4,4 C 4,4 C 82 % 987,8 hPa 0,0 l/m 0 min 0 min 41 W/m 16,1 km/h (3 Bft) 96,55 %
30.10.2018 15:08 5,6 C 4,4 C 4,4 C 83 % 987,8 hPa 0,0 l/m 0 min 4 min 35 W/m 19,3 km/h (3 Bft) 97,56 %
30.10.2018 15:10 5,6 C 4,4 C 4,4 C 83 % 987,8 hPa 0,0 l/m 0 min 2 min 28 W/m 25,7 km/h (4 Bft) 100,00 %
30.10.2018 15:12 5,6 C 4,4 C 4,4 C 84 % 987,8 hPa 0,0 l/m 0 min 2 min 27 W/m 29,0 km/h (5 Bft) 95,74 %
30.10.2018 15:14 5,5 C 4,4 C 4,4 C 84 % 987,8 hPa 0,0 l/m 0 min 0 min 26 W/m 12,9 km/h (3 Bft) 95,65 %
30.10.2018 15:16 5,4 C 4,4 C 4,4 C 84 % 987,7 hPa 0,0 l/m 0 min 0 min 26 W/m 12,9 km/h (3 Bft) 94,29 %
30.10.2018 15:18 5,4 C 4,4 C 4,4 C 84 % 987,8 hPa 0,0 l/m 0 min 0 min 27 W/m 22,5 km/h (4 Bft) 98,31 %
30.10.2018 15:20 5,4 C 4,4 C 4,4 C 84 % 987,7 hPa 0,0 l/m 0 min 0 min 25 W/m 9,7 km/h (2 Bft) 97,87 %
30.10.2018 15:22 5,3 C 4,4 C 4,4 C 84 % 987,7 hPa 0,0 l/m 0 min 0 min 23 W/m 16,1 km/h (3 Bft) 95,74 %
30.10.2018 15:24 5,3 C 4,4 C 4,4 C 84 % 987,8 hPa 0,0 l/m 0 min 0 min 22 W/m 16,1 km/h (3 Bft) 95,12 %
30.10.2018 15:26 5,3 C 4,4 C 3,9 C 84 % 987,8 hPa 0,0 l/m 0 min 0 min 24 W/m 16,1 km/h (3 Bft) 95,74 %
30.10.2018 15:28 5,3 C 3,9 C 3,9 C 84 % 987,8 hPa 0,0 l/m 0 min 2 min 24 W/m 22,5 km/h (4 Bft) 97,83 %
30.10.2018 15:30 5,2 C 3,9 C 3,9 C 85 % 987,9 hPa 0,0 l/m 0 min 2 min 26 W/m 19,3 km/h (3 Bft) 97,87 %
30.10.2018 15:32 5,2 C 3,3 C 3,9 C 85 % 987,9 hPa 0,0 l/m 0 min 2 min 25 W/m 12,9 km/h (3 Bft) 97,87 %
30.10.2018 15:34 5,2 C 3,3 C 3,3 C 85 % 987,9 hPa 0,0 l/m 0 min 2 min 23 W/m 12,9 km/h (3 Bft) 93,62 %
30.10.2018 15:38 5,1 C 3,3 C 3,3 C 86 % 988,0 hPa 0,0 l/m 0 min 4 min 21 W/m 19,3 km/h (3 Bft) 95,74 %
30.10.2018 15:40 5,1 C 3,3 C 3,3 C 86 % 988,0 hPa 0,0 l/m 0 min 2 min 21 W/m 16,1 km/h (3 Bft) 95,65 %
30.10.2018 15:42 5,1 C 3,3 C 3,3 C 87 % 988,0 hPa 0,0 l/m 0 min 2 min 19 W/m 12,9 km/h (3 Bft) 93,62 %
30.10.2018 15:44 5,0 C 3,3 C 3,3 C 87 % 988,0 hPa 0,0 l/m 0 min 2 min 18 W/m 12,9 km/h (3 Bft) 93,62 %
30.10.2018 15:46 5,0 C 3,3 C 3,3 C 87 % 988,0 hPa 0,2 l/m 0 min 2 min 17 W/m 12,9 km/h (3 Bft) 95,74 %
30.10.2018 15:48 4,9 C 3,3 C 3,3 C 87 % 988,1 hPa 0,0 l/m 0 min 2 min 17 W/m 19,3 km/h (3 Bft) 95,74 %
30.10.2018 15:50 4,9 C 3,3 C 3,3 C 88 % 988,1 hPa 0,0 l/m 0 min 2 min 20 W/m 22,5 km/h (4 Bft) 93,62 %
30.10.2018 15:52 4,9 C 3,3 C 3,3 C 88 % 988,1 hPa 0,0 l/m 0 min 2 min 20 W/m 19,3 km/h (3 Bft) 95,65 %
30.10.2018 15:54 4,8 C 3,3 C 3,3 C 89 % 988,2 hPa 0,0 l/m 0 min 2 min 18 W/m 16,1 km/h (3 Bft) 94,00 %
30.10.2018 15:56 4,8 C 2,8 C 3,3 C 88 % 988,1 hPa 0,0 l/m 0 min 2 min 17 W/m 19,3 km/h (3 Bft) 93,62 %
30.10.2018 15:58 4,7 C 2,8 C 3,3 C 89 % 988,2 hPa 0,2 l/m 0 min 2 min 15 W/m 19,3 km/h (3 Bft) 93,62 %
30.10.2018 16:00 4,6 C 2,8 C 2,8 C 89 % 988,2 hPa 0,0 l/m 0 min 2 min 16 W/m 22,5 km/h (4 Bft) 93,62 %
30.10.2018 16:02 4,6 C 2,8 C 2,8 C 89 % 988,2 hPa 0,0 l/m 0 min 2 min 18 W/m 19,3 km/h (3 Bft) 95,65 %
30.10.2018 16:04 4,5 C 2,8 C 2,8 C 89 % 988,3 hPa 0,0 l/m 0 min 2 min 17 W/m 16,1 km/h (3 Bft) 95,74 %
30.10.2018 16:08 4,4 C 2,8 C 2,8 C 90 % 988,2 hPa 0,2 l/m 0 min 4 min 15 W/m 9,7 km/h (2 Bft) 95,74 %
30.10.2018 16:10 4,4 C 2,8 C 2,8 C 90 % 988,4 hPa 0,2 l/m 0 min 2 min 12 W/m 9,7 km/h (2 Bft) 97,87 %
30.10.2018 16:12 4,3 C 2,8 C 2,8 C 90 % 988,4 hPa 0,0 l/m 0 min 2 min 11 W/m 9,7 km/h (2 Bft) 97,87 %
30.10.2018 16:14 4,3 C 2,8 C 2,8 C 90 % 988,4 hPa 0,0 l/m 0 min 2 min 10 W/m 9,7 km/h (2 Bft) 95,65 %
30.10.2018 16:16 4,3 C 2,8 C 2,8 C 91 % 988,5 hPa 0,2 l/m 0 min 2 min 11 W/m 12,9 km/h (3 Bft) 97,87 %
30.10.2018 16:18 4,2 C 2,8 C 2,8 C 91 % 988,4 hPa 0,0 l/m 0 min 2 min 11 W/m 9,7 km/h (2 Bft) 100,00 %
30.10.2018 16:20 4,2 C 2,8 C 2,8 C 91 % 988,5 hPa 0,0 l/m 0 min 2 min 12 W/m 9,7 km/h (2 Bft) 100,00 %
30.10.2018 16:22 4,2 C 2,8 C 2,8 C 91 % 988,4 hPa 0,2 l/m 0 min 2 min 12 W/m 12,9 km/h (3 Bft) 100,00 %
30.10.2018 16:24 4,2 C 2,8 C 2,8 C 91 % 988,5 hPa 0,0 l/m 0 min 2 min 10 W/m 16,1 km/h (3 Bft) 100,00 %
30.10.2018 16:26 4,1 C 2,8 C 2,8 C 91 % 988,5 hPa 0,0 l/m 0 min 2 min 9 W/m 9,7 km/h (2 Bft) 100,00 %
30.10.2018 16:28 4,1 C 2,8 C 2,8 C 91 % 988,6 hPa 0,0 l/m 0 min 2 min 9 W/m 6,4 km/h (2 Bft) 100,00 %
30.10.2018 16:30 4,1 C 2,8 C 2,8 C 92 % 988,5 hPa 0,0 l/m 0 min 2 min 7 W/m 6,4 km/h (2 Bft) 100,00 %
30.10.2018 16:32 4,1 C 2,8 C 2,8 C 92 % 988,5 hPa 0,2 l/m 0 min 2 min 8 W/m 9,7 km/h (2 Bft) 100,00 %
30.10.2018 16:34 4,1 C 2,8 C 2,8 C 92 % 988,6 hPa 0,0 l/m 0 min 2 min 5 W/m 9,7 km/h (2 Bft) 100,00 %
30.10.2018 16:38 4,1 C 2,8 C 3,3 C 92 % 988,6 hPa 0,2 l/m 0 min 4 min 5 W/m 9,7 km/h (2 Bft) 100,00 %
30.10.2018 16:40 4,1 C 2,8 C 3,3 C 92 % 988,6 hPa 0,0 l/m 0 min 2 min 5 W/m 9,7 km/h (2 Bft) 100,00 %
30.10.2018 16:42 4,1 C 3,3 C 3,3 C 93 % 988,6 hPa 0,0 l/m 0 min 2 min 5 W/m 12,9 km/h (3 Bft) 100,00 %
30.10.2018 16:44 4,1 C 3,3 C 3,3 C 92 % 988,6 hPa 0,0 l/m 0 min 2 min 5 W/m 6,4 km/h (2 Bft) 100,00 %
30.10.2018 16:46 4,1 C 3,3 C 3,3 C 93 % 988,6 hPa 0,2 l/m 0 min 2 min 5 W/m 9,7 km/h (2 Bft) 97,87 %
30.10.2018 16:48 4,1 C 3,3 C 3,3 C 93 % 988,6 hPa 0,0 l/m 0 min 2 min 5 W/m 6,4 km/h (2 Bft) 100,00 %
30.10.2018 16:50 4,1 C 3,3 C 3,3 C 93 % 988,7 hPa 0,0 l/m 0 min 2 min 0 W/m 9,7 km/h (2 Bft) 100,00 %
30.10.2018 16:52 4,1 C 3,3 C 3,3 C 93 % 988,7 hPa 0,0 l/m 0 min 2 min 0 W/m 12,9 km/h (3 Bft) 100,00 %
30.10.2018 16:54 4,1 C 3,3 C 3,3 C 93 % 988,6 hPa 0,2 l/m 0 min 2 min 0 W/m 6,4 km/h (2 Bft) 100,00 %
30.10.2018 16:56 4,1 C 3,3 C 3,3 C 93 % 988,6 hPa 0,0 l/m 0 min 2 min 0 W/m 9,7 km/h (2 Bft) 97,87 %
30.10.2018 16:58 4,1 C 3,3 C 3,3 C 93 % 988,7 hPa 0,2 l/m 0 min 2 min 0 W/m 6,4 km/h (2 Bft) 100,00 %
30.10.2018 17:00 4,1 C 3,3 C 3,3 C 93 % 988,8 hPa 0,0 l/m 0 min 2 min 0 W/m 12,9 km/h (3 Bft) 100,00 %
30.10.2018 17:02 4,1 C 3,3 C 3,3 C 94 % 988,8 hPa 0,2 l/m 0 min 2 min 0 W/m 12,9 km/h (3 Bft) 98,28 %
30.10.2018 17:04 4,1 C 3,3 C 3,3 C 94 % 988,8 hPa 0,0 l/m 0 min 2 min 0 W/m 12,9 km/h (3 Bft) 100,00 %
30.10.2018 17:08 4,1 C 3,3 C 3,3 C 94 % 988,8 hPa 0,2 l/m 0 min 4 min 0 W/m 9,7 km/h (2 Bft) 98,94 %
30.10.2018 17:10 4,1 C 3,3 C 3,3 C 94 % 988,8 hPa 0,2 l/m 0 min 2 min 0 W/m 9,7 km/h (2 Bft) 100,00 %
30.10.2018 17:12 4,1 C 3,3 C 3,3 C 94 % 988,7 hPa 0,0 l/m 0 min 2 min 0 W/m 12,9 km/h (3 Bft) 100,00 %
30.10.2018 17:14 4,2 C 3,3 C 3,3 C 94 % 988,7 hPa 0,0 l/m 0 min 2 min 0 W/m 9,7 km/h (2 Bft) 100,00 %
30.10.2018 17:16 4,2 C 3,3 C 3,3 C 94 % 988,8 hPa 0,2 l/m 0 min 2 min 0 W/m 9,7 km/h (2 Bft) 100,00 %
30.10.2018 17:18 4,2 C 3,9 C 3,3 C 94 % 988,7 hPa 0,0 l/m 0 min 2 min 0 W/m 9,7 km/h (2 Bft) 100,00 %
30.10.2018 17:20 4,2 C 3,9 C 3,9 C 94 % 988,7 hPa 0,2 l/m 0 min 2 min 0 W/m 6,4 km/h (2 Bft) 98,31 %
30.10.2018 17:22 4,3 C 3,9 C 3,9 C 95 % 988,8 hPa 0,0 l/m 0 min 2 min 0 W/m 19,3 km/h (3 Bft) 100,00 %
30.10.2018 17:24 4,4 C 3,9 C 3,9 C 95 % 988,9 hPa 0,0 l/m 0 min 2 min 0 W/m 6,4 km/h (2 Bft) 100,00 %
30.10.2018 17:26 4,4 C 3,9 C 3,9 C 95 % 988,8 hPa 0,0 l/m 0 min 2 min 0 W/m 9,7 km/h (2 Bft) 100,00 %
30.10.2018 17:28 4,5 C 4,4 C 3,9 C 95 % 988,9 hPa 0,0 l/m 0 min 2 min 0 W/m 9,7 km/h (2 Bft) 97,87 %
30.10.2018 17:30 4,6 C 4,4 C 3,9 C 95 % 989,0 hPa 0,0 l/m 0 min 2 min 0 W/m 16,1 km/h (3 Bft) 100,00 %
30.10.2018 17:32 4,8 C 4,4 C 4,4 C 95 % 989,0 hPa 0,2 l/m 0 min 2 min 0 W/m 16,1 km/h (3 Bft) 100,00 %
30.10.2018 17:34 4,9 C 5,0 C 4,4 C 95 % 989,1 hPa 0,0 l/m 0 min 2 min 0 W/m 9,7 km/h (2 Bft) 100,00 %
30.10.2018 17:38 5,2 C 5,6 C 5,0 C 95 % 989,1 hPa 0,2 l/m 0 min 4 min 0 W/m 19,3 km/h (3 Bft) 97,87 %
30.10.2018 17:40 5,4 C 5,6 C 5,0 C 96 % 989,2 hPa 0,0 l/m 0 min 2 min 0 W/m 16,1 km/h (3 Bft) 100,00 %
30.10.2018 17:42 5,6 C 6,1 C 5,6 C 96 % 989,2 hPa 0,0 l/m 0 min 2 min 0 W/m 16,1 km/h (3 Bft) 97,87 %
30.10.2018 17:44 5,9 C 6,1 C 5,6 C 96 % 989,3 hPa 0,0 l/m 0 min 2 min 0 W/m 22,5 km/h (4 Bft) 100,00 %
30.10.2018 17:46 6,1 C 6,7 C 5,6 C 96 % 989,3 hPa 0,0 l/m 0 min 2 min 0 W/m 25,7 km/h (4 Bft) 100,00 %
30.10.2018 17:48 6,4 C 6,7 C 6,1 C 96 % 989,3 hPa 0,0 l/m 0 min 2 min 0 W/m 25,7 km/h (4 Bft) 100,00 %
30.10.2018 17:50 6,7 C 6,7 C 6,1 C 97 % 989,4 hPa 0,0 l/m 0 min 2 min 0 W/m 25,7 km/h (4 Bft) 95,74 %
30.10.2018 17:52 6,8 C 6,7 C 6,1 C 97 % 989,5 hPa 0,0 l/m 0 min 2 min 0 W/m 22,5 km/h (4 Bft) 97,87 %
30.10.2018 17:54 6,9 C 6,7 C 6,1 C 97 % 989,6 hPa 0,0 l/m 0 min 2 min 0 W/m 16,1 km/h (3 Bft) 98,00 %
30.10.2018 17:56 7,1 C 6,7 C 6,1 C 97 % 989,7 hPa 0,0 l/m 0 min 2 min 0 W/m 22,5 km/h (4 Bft) 100,00 %
30.10.2018 17:58 7,1 C 6,7 C 6,1 C 97 % 989,7 hPa 0,2 l/m 0 min 2 min 0 W/m 25,7 km/h (4 Bft) 100,00 %
30.10.2018 18:00 7,2 C 6,7 C 6,1 C 97 % 989,7 hPa 0,0 l/m 0 min 2 min 0 W/m 25,7 km/h (4 Bft) 97,87 %
30.10.2018 18:02 7,3 C 6,7 C 6,1 C 97 % 989,8 hPa 0,0 l/m 0 min 2 min 0 W/m 22,5 km/h (4 Bft) 93,62 %
30.10.2018 18:04 7,3 C 6,7 C 6,1 C 97 % 989,9 hPa 0,0 l/m 0 min 2 min 0 W/m 22,5 km/h (4 Bft) 97,87 %
30.10.2018 18:08 7,4 C 6,7 C 6,1 C 97 % 990,1 hPa 0,2 l/m 0 min 4 min 0 W/m 29,0 km/h (5 Bft) 93,62 %
30.10.2018 18:10 7,4 C 6,7 C 6,1 C 97 % 990,2 hPa 0,0 l/m 0 min 2 min 0 W/m 38,6 km/h (5 Bft) 89,13 %
30.10.2018 18:12 7,4 C 6,7 C 6,1 C 97 % 990,2 hPa 0,0 l/m 0 min 2 min 0 W/m 19,3 km/h (3 Bft) 95,74 %
30.10.2018 18:14 7,4 C 6,7 C 6,1 C 97 % 990,3 hPa 0,0 l/m 0 min 2 min 0 W/m 25,7 km/h (4 Bft) 89,80 %
30.10.2018 18:16 7,5 C 6,7 C 6,1 C 97 % 990,4 hPa 0,0 l/m 0 min 2 min 0 W/m 25,7 km/h (4 Bft) 97,14 %
30.10.2018 18:18 7,5 C 6,7 C 6,1 C 97 % 990,4 hPa 0,0 l/m 0 min 2 min 0 W/m 45,1 km/h (6 Bft) 93,62 %
30.10.2018 18:20 7,5 C 6,7 C 6,1 C 97 % 990,6 hPa 0,0 l/m 0 min 2 min 0 W/m 25,7 km/h (4 Bft) 91,38 %
30.10.2018 18:22 7,5 C 6,7 C 6,1 C 97 % 990,7 hPa 0,0 l/m 0 min 2 min 0 W/m 19,3 km/h (3 Bft) 91,67 %
30.10.2018 18:24 7,6 C 6,7 C 6,1 C 97 % 990,9 hPa 0,0 l/m 0 min 2 min 0 W/m 25,7 km/h (4 Bft) 94,34 %
30.10.2018 18:26 7,5 C 6,7 C 6,1 C 97 % 991,0 hPa 0,0 l/m 0 min 2 min 0 W/m 25,7 km/h (4 Bft) 91,49 %
30.10.2018 18:28 7,6 C 6,7 C 6,1 C 97 % 990,9 hPa 0,0 l/m 0 min 2 min 0 W/m 32,2 km/h (5 Bft) 93,62 %
30.10.2018 18:30 7,6 C 6,7 C 6,1 C 97 % 991,1 hPa 0,0 l/m 0 min 2 min 0 W/m 32,2 km/h (5 Bft) 93,62 %
30.10.2018 18:32 7,6 C 6,7 C 6,1 C 97 % 991,3 hPa 0,0 l/m 0 min 2 min 0 W/m 29,0 km/h (5 Bft) 91,49 %
30.10.2018 18:34 7,6 C 6,7 C 6,1 C 97 % 991,3 hPa 0,0 l/m 0 min 2 min 0 W/m 38,6 km/h (5 Bft) 91,30 %
30.10.2018 18:38 7,6 C 6,7 C 6,1 C 97 % 991,5 hPa 0,2 l/m 0 min 4 min 0 W/m 41,8 km/h (6 Bft) 92,55 %
30.10.2018 18:40 7,6 C 6,7 C 6,1 C 97 % 991,5 hPa 0,0 l/m 0 min 2 min 0 W/m 22,5 km/h (4 Bft) 93,62 %
30.10.2018 18:42 7,6 C 6,7 C 6,1 C 97 % 991,7 hPa 0,0 l/m 0 min 2 min 0 W/m 22,5 km/h (4 Bft) 91,49 %
30.10.2018 18:44 7,6 C 6,7 C 6,1 C 97 % 991,8 hPa 0,0 l/m 0 min 2 min 0 W/m 16,1 km/h (3 Bft) 95,74 %
30.10.2018 18:46 7,6 C 6,7 C 6,1 C 97 % 991,9 hPa 0,2 l/m 0 min 2 min 0 W/m 22,5 km/h (4 Bft) 93,48 %
30.10.2018 18:48 7,6 C 6,7 C 6,1 C 97 % 992,0 hPa 0,0 l/m 0 min 2 min 0 W/m 19,3 km/h (3 Bft) 91,49 %
30.10.2018 18:50 7,7 C 6,7 C 6,1 C 97 % 992,0 hPa 0,0 l/m 0 min 2 min 0 W/m 32,2 km/h (5 Bft) 93,62 %
30.10.2018 18:52 7,7 C 6,7 C 6,1 C 97 % 992,0 hPa 0,0 l/m 0 min 2 min 0 W/m 29,0 km/h (5 Bft) 93,62 %
30.10.2018 18:54 7,7 C 6,7 C 6,1 C 97 % 992,1 hPa 0,0 l/m 0 min 2 min 0 W/m 19,3 km/h (3 Bft) 91,49 %
30.10.2018 18:56 7,7 C 6,7 C 6,1 C 97 % 992,1 hPa 0,0 l/m 0 min 2 min 0 W/m 29,0 km/h (5 Bft) 95,74 %
30.10.2018 18:58 7,7 C 6,7 C 6,1 C 97 % 992,2 hPa 0,0 l/m 0 min 2 min 0 W/m 35,4 km/h (5 Bft) 95,65 %
30.10.2018 19:00 7,7 C 6,7 C 6,1 C 97 % 992,2 hPa 0,0 l/m 0 min 2 min 0 W/m 35,4 km/h (5 Bft) 97,87 %
30.10.2018 19:02 7,7 C 6,7 C 6,1 C 97 % 992,4 hPa 0,0 l/m 0 min 2 min 0 W/m 25,7 km/h (4 Bft) 97,87 %
30.10.2018 19:04 7,7 C 6,7 C 6,1 C 97 % 992,7 hPa 0,0 l/m 0 min 2 min 0 W/m 25,7 km/h (4 Bft) 95,74 %
30.10.2018 19:08 7,7 C 6,7 C 6,1 C 97 % 992,7 hPa 0,0 l/m 0 min 4 min 0 W/m 29,0 km/h (5 Bft) 98,92 %
30.10.2018 19:10 7,8 C 6,7 C 6,1 C 97 % 992,9 hPa 0,0 l/m 0 min 2 min 0 W/m 29,0 km/h (5 Bft) 100,00 %
30.10.2018 19:12 7,8 C 6,7 C 6,1 C 97 % 992,9 hPa 0,2 l/m 0 min 2 min 0 W/m 25,7 km/h (4 Bft) 100,00 %
30.10.2018 19:14 7,8 C 6,7 C 6,1 C 97 % 992,9 hPa 0,0 l/m 0 min 2 min 0 W/m 29,0 km/h (5 Bft) 95,74 %
30.10.2018 19:16 7,8 C 6,7 C 6,1 C 97 % 993,0 hPa 0,0 l/m 0 min 2 min 0 W/m 16,1 km/h (3 Bft) 95,74 %
30.10.2018 19:18 7,8 C 6,7 C 6,1 C 97 % 993,1 hPa 0,0 l/m 0 min 2 min 0 W/m 25,7 km/h (4 Bft) 100,00 %
30.10.2018 19:20 7,8 C 6,7 C 6,7 C 97 % 993,1 hPa 0,0 l/m 0 min 2 min 0 W/m 16,1 km/h (3 Bft) 100,00 %
30.10.2018 19:22 7,8 C 6,7 C 6,7 C 97 % 993,2 hPa 0,0 l/m 0 min 2 min 0 W/m 19,3 km/h (3 Bft) 97,87 %
30.10.2018 19:24 7,8 C 6,7 C 6,7 C 97 % 993,3 hPa 0,0 l/m 0 min 2 min 0 W/m 29,0 km/h (5 Bft) 95,74 %
30.10.2018 19:26 7,9 C 7,2 C 6,7 C 97 % 993,4 hPa 0,0 l/m 0 min 2 min 0 W/m 32,2 km/h (5 Bft) 95,74 %
30.10.2018 19:28 7,9 C 6,7 C 6,7 C 97 % 993,5 hPa 0,0 l/m 0 min 2 min 0 W/m 25,7 km/h (4 Bft) 100,00 %
30.10.2018 19:30 7,9 C 6,7 C 6,7 C 97 % 993,6 hPa 0,0 l/m 0 min 2 min 0 W/m 16,1 km/h (3 Bft) 100,00 %
30.10.2018 19:32 7,9 C 7,2 C 6,7 C 97 % 993,7 hPa 0,2 l/m 0 min 2 min 0 W/m 22,5 km/h (4 Bft) 97,83 %
30.10.2018 19:34 7,9 C 7,2 C 6,7 C 97 % 993,8 hPa 0,0 l/m 0 min 2 min 0 W/m 29,0 km/h (5 Bft) 100,00 %
30.10.2018 19:38 7,9 C 7,2 C 6,7 C 97 % 994,0 hPa 0,0 l/m 0 min 4 min 0 W/m 22,5 km/h (4 Bft) 98,94 %
30.10.2018 19:40 7,9 C 7,2 C 6,7 C 97 % 994,0 hPa 0,0 l/m 0 min 2 min 0 W/m 32,2 km/h (5 Bft) 100,00 %
30.10.2018 19:42 7,9 C 7,2 C 6,7 C 97 % 994,1 hPa 0,0 l/m 0 min 2 min 0 W/m 25,7 km/h (4 Bft) 100,00 %
30.10.2018 19:44 8,0 C 7,2 C 6,7 C 97 % 994,2 hPa 0,0 l/m 0 min 2 min 0 W/m 32,2 km/h (5 Bft) 100,00 %
30.10.2018 19:46 8,0 C 7,2 C 6,7 C 96 % 994,1 hPa 0,0 l/m 0 min 2 min 0 W/m 19,3 km/h (3 Bft) 97,87 %
30.10.2018 19:48 8,0 C 7,2 C 6,7 C 96 % 994,2 hPa 0,2 l/m 0 min 2 min 0 W/m 35,4 km/h (5 Bft) 100,00 %
30.10.2018 19:50 8,0 C 7,2 C 6,7 C 96 % 994,3 hPa 0,0 l/m 0 min 2 min 0 W/m 22,5 km/h (4 Bft) 100,00 %
30.10.2018 19:52 8,0 C 7,2 C 6,7 C 96 % 994,3 hPa 0,0 l/m 0 min 2 min 0 W/m 22,5 km/h (4 Bft) 97,87 %
30.10.2018 19:54 8,0 C 7,2 C 6,7 C 96 % 994,4 hPa 0,0 l/m 0 min 2 min 0 W/m 19,3 km/h (3 Bft) 100,00 %
30.10.2018 19:56 8,0 C 7,2 C 6,7 C 96 % 994,5 hPa 0,0 l/m 0 min 2 min 0 W/m 16,1 km/h (3 Bft) 100,00 %
30.10.2018 19:58 8,0 C 7,2 C 6,7 C 96 % 994,4 hPa 0,2 l/m 0 min 2 min 0 W/m 19,3 km/h (3 Bft) 97,87 %
30.10.2018 20:00 8,0 C 7,2 C 6,7 C 96 % 994,6 hPa 0,0 l/m 0 min 2 min 0 W/m 25,7 km/h (4 Bft) 100,00 %
30.10.2018 20:02 8,0 C 7,2 C 6,7 C 96 % 994,6 hPa 0,0 l/m 0 min 2 min 0 W/m 22,5 km/h (4 Bft) 100,00 %
30.10.2018 20:04 8,0 C 7,2 C 6,7 C 96 % 994,8 hPa 0,0 l/m 0 min 2 min 0 W/m 32,2 km/h (5 Bft) 100,00 %
30.10.2018 20:08 8,0 C 7,2 C 6,7 C 96 % 995,1 hPa 0,0 l/m 0 min 4 min 0 W/m 29,0 km/h (5 Bft) 100,00 %
30.10.2018 20:10 8,0 C 7,2 C 6,7 C 96 % 995,1 hPa 0,0 l/m 0 min 2 min 0 W/m 25,7 km/h (4 Bft) 100,00 %
30.10.2018 20:12 8,0 C 7,2 C 6,7 C 96 % 995,1 hPa 0,0 l/m 0 min 2 min 0 W/m 22,5 km/h (4 Bft) 97,87 %
30.10.2018 20:14 8,0 C 7,2 C 6,7 C 96 % 995,2 hPa 0,0 l/m 0 min 2 min 0 W/m 22,5 km/h (4 Bft) 100,00 %
30.10.2018 20:16 8,0 C 7,2 C 6,7 C 96 % 995,4 hPa 0,0 l/m 0 min 2 min 0 W/m 25,7 km/h (4 Bft) 95,74 %
30.10.2018 20:18 8,0 C 7,2 C 6,7 C 96 % 995,4 hPa 0,0 l/m 0 min 2 min 0 W/m 16,1 km/h (3 Bft) 97,87 %
30.10.2018 20:20 8,0 C 7,2 C 6,7 C 96 % 995,5 hPa 0,0 l/m 0 min 2 min 0 W/m 25,7 km/h (4 Bft) 100,00 %
30.10.2018 20:22 8,0 C 7,2 C 6,7 C 96 % 995,6 hPa 0,0 l/m 0 min 2 min 0 W/m 22,5 km/h (4 Bft) 97,87 %
30.10.2018 20:24 8,1 C 7,2 C 6,7 C 96 % 995,6 hPa 0,2 l/m 0 min 2 min 0 W/m 22,5 km/h (4 Bft) 100,00 %
30.10.2018 20:26 8,1 C 7,2 C 6,7 C 96 % 995,7 hPa 0,0 l/m 0 min 2 min 0 W/m 22,5 km/h (4 Bft) 97,87 %
30.10.2018 20:28 8,1 C 7,2 C 6,7 C 96 % 995,8 hPa 0,0 l/m 0 min 2 min 0 W/m 19,3 km/h (3 Bft) 100,00 %
30.10.2018 20:30 8,1 C 7,2 C 6,7 C 96 % 995,9 hPa 0,0 l/m 0 min 2 min 0 W/m 19,3 km/h (3 Bft) 100,00 %
30.10.2018 20:32 8,1 C 7,2 C 6,7 C 96 % 996,0 hPa 0,0 l/m 0 min 2 min 0 W/m 22,5 km/h (4 Bft) 97,83 %
30.10.2018 20:34 8,1 C 7,2 C 6,7 C 96 % 995,9 hPa 0,0 l/m 0 min 2 min 0 W/m 22,5 km/h (4 Bft) 97,87 %
30.10.2018 20:38 8,1 C 7,2 C 6,7 C 96 % 996,1 hPa 0,0 l/m 0 min 4 min 0 W/m 35,4 km/h (5 Bft) 95,74 %
30.10.2018 20:40 8,1 C 7,2 C 6,7 C 96 % 996,2 hPa 0,0 l/m 0 min 2 min 0 W/m 25,7 km/h (4 Bft) 97,87 %
30.10.2018 20:42 8,1 C 7,2 C 6,7 C 96 % 996,4 hPa 0,0 l/m 0 min 2 min 0 W/m 22,5 km/h (4 Bft) 97,83 %
30.10.2018 20:44 8,2 C 7,2 C 6,7 C 96 % 996,3 hPa 0,0 l/m 0 min 2 min 0 W/m 16,1 km/h (3 Bft) 97,87 %
30.10.2018 20:46 8,2 C 7,2 C 6,7 C 96 % 996,5 hPa 0,0 l/m 0 min 2 min 0 W/m 22,5 km/h (4 Bft) 97,87 %
30.10.2018 20:48 8,2 C 7,2 C 6,7 C 96 % 996,6 hPa 0,0 l/m 0 min 2 min 0 W/m 22,5 km/h (4 Bft) 95,74 %
30.10.2018 20:50 8,2 C 7,2 C 6,7 C 96 % 996,7 hPa 0,0 l/m 0 min 2 min 0 W/m 29,0 km/h (5 Bft) 95,74 %
30.10.2018 20:52 8,2 C 7,2 C 6,7 C 96 % 996,7 hPa 0,0 l/m 0 min 2 min 0 W/m 35,4 km/h (5 Bft) 95,74 %
30.10.2018 20:54 8,2 C 7,2 C 6,7 C 96 % 996,8 hPa 0,0 l/m 0 min 2 min 0 W/m 25,7 km/h (4 Bft) 97,83 %
30.10.2018 20:56 8,2 C 7,2 C 6,7 C 96 % 996,9 hPa 0,0 l/m 0 min 2 min 0 W/m 22,5 km/h (4 Bft) 97,87 %
30.10.2018 20:58 8,2 C 7,2 C 6,7 C 96 % 996,8 hPa 0,0 l/m 0 min 2 min 0 W/m 35,4 km/h (5 Bft) 95,74 %
30.10.2018 21:00 8,2 C 7,2 C 6,7 C 96 % 997,2 hPa 0,0 l/m 0 min 2 min 0 W/m 29,0 km/h (5 Bft) 95,74 %
30.10.2018 21:02 8,2 C 7,2 C 6,7 C 96 % 997,3 hPa 0,0 l/m 0 min 2 min 0 W/m 22,5 km/h (4 Bft) 97,87 %
30.10.2018 21:04 8,2 C 7,2 C 6,7 C 96 % 997,3 hPa 0,0 l/m 0 min 2 min 0 W/m 22,5 km/h (4 Bft) 95,74 %
30.10.2018 21:08 8,3 C 7,2 C 6,7 C 96 % 997,4 hPa 0,0 l/m 0 min 4 min 0 W/m 35,4 km/h (5 Bft) 95,70 %
30.10.2018 21:10 8,3 C 7,2 C 6,7 C 95 % 997,5 hPa 0,0 l/m 0 min 0 min 0 W/m 19,3 km/h (3 Bft) 93,62 %
30.10.2018 21:12 8,3 C 7,2 C 6,7 C 95 % 997,8 hPa 0,0 l/m 0 min 2 min 0 W/m 19,3 km/h (3 Bft) 95,74 %
30.10.2018 21:14 8,3 C 7,2 C 6,7 C 95 % 997,7 hPa 0,0 l/m 0 min 2 min 0 W/m 25,7 km/h (4 Bft) 95,74 %
30.10.2018 21:16 8,3 C 7,2 C 6,7 C 95 % 998,0 hPa 0,0 l/m 0 min 2 min 0 W/m 22,5 km/h (4 Bft) 93,62 %
30.10.2018 21:18 8,3 C 7,2 C 6,7 C 95 % 997,9 hPa 0,0 l/m 0 min 2 min 0 W/m 22,5 km/h (4 Bft) 95,65 %
30.10.2018 21:20 8,3 C 7,2 C 6,7 C 95 % 998,0 hPa 0,0 l/m 0 min 2 min 0 W/m 29,0 km/h (5 Bft) 97,87 %
30.10.2018 21:22 8,3 C 7,2 C 6,7 C 95 % 998,0 hPa 0,0 l/m 0 min 2 min 0 W/m 19,3 km/h (3 Bft) 97,87 %
30.10.2018 21:24 8,3 C 7,2 C 6,7 C 95 % 998,1 hPa 0,0 l/m 0 min 0 min 0 W/m 22,5 km/h (4 Bft) 95,74 %
30.10.2018 21:26 8,3 C 7,2 C 6,7 C 95 % 998,2 hPa 0,0 l/m 0 min 2 min 0 W/m 19,3 km/h (3 Bft) 95,74 %
30.10.2018 21:28 8,4 C 7,2 C 6,7 C 95 % 998,2 hPa 0,0 l/m 0 min 2 min 0 W/m 29,0 km/h (5 Bft) 93,62 %
30.10.2018 21:30 8,3 C 7,2 C 6,7 C 95 % 998,2 hPa 0,0 l/m 0 min 2 min 0 W/m 29,0 km/h (5 Bft) 91,30 %
30.10.2018 21:32 8,4 C 7,2 C 6,7 C 95 % 998,4 hPa 0,0 l/m 0 min 2 min 0 W/m 25,7 km/h (4 Bft) 93,62 %
30.10.2018 21:34 8,4 C 7,2 C 6,7 C 94 % 998,6 hPa 0,0 l/m 0 min 2 min 0 W/m 19,3 km/h (3 Bft) 93,62 %
30.10.2018 21:38 8,4 C 7,2 C 6,7 C 94 % 998,6 hPa 0,0 l/m 0 min 4 min 0 W/m 25,7 km/h (4 Bft) 92,55 %
30.10.2018 21:40 8,4 C 7,2 C 7,2 C 94 % 998,6 hPa 0,0 l/m 0 min 0 min 0 W/m 16,1 km/h (3 Bft) 95,74 %
30.10.2018 21:42 8,4 C 7,2 C 6,7 C 94 % 998,8 hPa 0,0 l/m 0 min 0 min 0 W/m 32,2 km/h (5 Bft) 91,30 %
30.10.2018 21:44 8,4 C 7,2 C 7,2 C 94 % 998,8 hPa 0,0 l/m 0 min 0 min 0 W/m 25,7 km/h (4 Bft) 93,62 %
30.10.2018 21:46 8,4 C 7,2 C 7,2 C 94 % 998,9 hPa 0,0 l/m 0 min 0 min 0 W/m 25,7 km/h (4 Bft) 95,74 %
30.10.2018 21:48 8,4 C 7,2 C 7,2 C 94 % 998,9 hPa 0,0 l/m 0 min 0 min 0 W/m 25,7 km/h (4 Bft) 91,49 %
30.10.2018 21:50 8,4 C 7,2 C 7,2 C 94 % 999,1 hPa 0,0 l/m 0 min 0 min 0 W/m 25,7 km/h (4 Bft) 95,74 %
30.10.2018 21:52 8,4 C 7,2 C 7,2 C 94 % 999,0 hPa 0,0 l/m 0 min 0 min 0 W/m 32,2 km/h (5 Bft) 93,62 %
30.10.2018 21:54 8,4 C 7,2 C 7,2 C 94 % 999,1 hPa 0,0 l/m 0 min 2 min 0 W/m 29,0 km/h (5 Bft) 97,83 %
30.10.2018 21:56 8,5 C 7,2 C 7,2 C 93 % 999,1 hPa 0,0 l/m 0 min 2 min 0 W/m 29,0 km/h (5 Bft) 93,62 %
30.10.2018 21:58 8,5 C 7,2 C 7,2 C 93 % 999,3 hPa 0,0 l/m 0 min 2 min 0 W/m 16,1 km/h (3 Bft) 95,74 %
30.10.2018 22:00 8,5 C 7,2 C 7,2 C 93 % 999,3 hPa 0,0 l/m 0 min 2 min 0 W/m 12,9 km/h (3 Bft) 95,74 %
30.10.2018 22:02 8,5 C 7,2 C 7,2 C 93 % 999,6 hPa 0,0 l/m 0 min 2 min 0 W/m 19,3 km/h (3 Bft) 95,74 %
30.10.2018 22:04 8,5 C 7,2 C 7,2 C 93 % 999,5 hPa 0,0 l/m 0 min 2 min 0 W/m 19,3 km/h (3 Bft) 97,83 %
30.10.2018 22:08 8,5 C 7,2 C 6,7 C 93 % 999,6 hPa 0,0 l/m 0 min 4 min 0 W/m 19,3 km/h (3 Bft) 96,81 %
30.10.2018 22:10 8,5 C 7,2 C 6,7 C 93 % 999,8 hPa 0,2 l/m 0 min 2 min 0 W/m 19,3 km/h (3 Bft) 97,87 %
30.10.2018 22:12 8,5 C 7,2 C 6,7 C 93 % 999,8 hPa 0,0 l/m 0 min 2 min 0 W/m 29,0 km/h (5 Bft) 95,74 %
30.10.2018 22:14 8,4 C 7,2 C 6,7 C 93 % 1000,0 hPa 0,0 l/m 0 min 2 min 0 W/m 22,5 km/h (4 Bft) 95,74 %
30.10.2018 22:16 8,4 C 7,2 C 6,7 C 93 % 1000,0 hPa 0,0 l/m 0 min 2 min 0 W/m 22,5 km/h (4 Bft) 97,83 %
30.10.2018 22:18 8,4 C 7,2 C 6,7 C 93 % 1000,0 hPa 0,0 l/m 0 min 2 min 0 W/m 22,5 km/h (4 Bft) 97,87 %
30.10.2018 22:20 8,4 C 7,2 C 6,7 C 93 % 1000,1 hPa 0,0 l/m 0 min 2 min 0 W/m 25,7 km/h (4 Bft) 95,74 %
30.10.2018 22:22 8,4 C 7,2 C 6,7 C 93 % 1000,1 hPa 0,0 l/m 0 min 2 min 0 W/m 19,3 km/h (3 Bft) 97,87 %
30.10.2018 22:24 8,4 C 7,2 C 6,7 C 93 % 1000,1 hPa 0,0 l/m 0 min 2 min 0 W/m 22,5 km/h (4 Bft) 95,74 %
30.10.2018 22:26 8,3 C 7,2 C 6,7 C 93 % 1000,3 hPa 0,0 l/m 0 min 2 min 0 W/m 16,1 km/h (3 Bft) 93,62 %
30.10.2018 22:28 8,3 C 7,2 C 6,7 C 93 % 1000,3 hPa 0,0 l/m 0 min 2 min 0 W/m 16,1 km/h (3 Bft) 100,00 %
30.10.2018 22:30 8,3 C 7,2 C 6,7 C 93 % 1000,3 hPa 0,0 l/m 0 min 2 min 0 W/m 12,9 km/h (3 Bft) 97,87 %
30.10.2018 22:32 8,3 C 6,7 C 6,7 C 94 % 1000,4 hPa 0,0 l/m 0 min 2 min 0 W/m 16,1 km/h (3 Bft) 97,87 %
30.10.2018 22:34 8,3 C 6,7 C 6,7 C 94 % 1000,5 hPa 0,0 l/m 0 min 2 min 0 W/m 29,0 km/h (5 Bft) 100,00 %
30.10.2018 22:38 8,2 C 6,7 C 6,7 C 94 % 1000,6 hPa 0,2 l/m 0 min 4 min 0 W/m 19,3 km/h (3 Bft) 98,94 %
30.10.2018 22:40 8,2 C 6,7 C 6,7 C 94 % 1000,8 hPa 0,0 l/m 0 min 2 min 0 W/m 16,1 km/h (3 Bft) 97,83 %
30.10.2018 22:42 8,2 C 6,7 C 6,7 C 94 % 1000,8 hPa 0,0 l/m 0 min 2 min 0 W/m 9,7 km/h (2 Bft) 97,87 %
30.10.2018 22:44 8,2 C 6,7 C 6,7 C 94 % 1000,8 hPa 0,0 l/m 0 min 2 min 0 W/m 12,9 km/h (3 Bft) 100,00 %
30.10.2018 22:46 8,2 C 6,7 C 6,7 C 94 % 1000,8 hPa 0,0 l/m 0 min 2 min 0 W/m 22,5 km/h (4 Bft) 97,87 %
30.10.2018 22:48 8,2 C 7,2 C 6,7 C 94 % 1000,9 hPa 0,0 l/m 0 min 2 min 0 W/m 9,7 km/h (2 Bft) 100,00 %
30.10.2018 22:50 8,2 C 7,2 C 6,7 C 94 % 1001,0 hPa 0,0 l/m 0 min 2 min 0 W/m 25,7 km/h (4 Bft) 97,87 %
30.10.2018 22:52 8,2 C 7,2 C 6,7 C 94 % 1001,0 hPa 0,0 l/m 0 min 2 min 0 W/m 12,9 km/h (3 Bft) 100,00 %
30.10.2018 22:54 8,2 C 7,2 C 6,7 C 94 % 1001,1 hPa 0,0 l/m 0 min 2 min 0 W/m 22,5 km/h (4 Bft) 100,00 %
30.10.2018 22:56 8,2 C 7,2 C 6,7 C 94 % 1001,2 hPa 0,0 l/m 0 min 2 min 0 W/m 16,1 km/h (3 Bft) 95,74 %
30.10.2018 22:58 8,2 C 7,2 C 6,7 C 94 % 1001,3 hPa 0,0 l/m 0 min 0 min 0 W/m 19,3 km/h (3 Bft) 100,00 %
30.10.2018 23:00 8,2 C 7,2 C 6,7 C 94 % 1001,3 hPa 0,0 l/m 0 min 0 min 0 W/m 19,3 km/h (3 Bft) 97,87 %
30.10.2018 23:02 8,2 C 6,7 C 6,7 C 94 % 1001,5 hPa 0,0 l/m 0 min 0 min 0 W/m 22,5 km/h (4 Bft) 97,87 %
30.10.2018 23:04 8,2 C 7,2 C 6,7 C 94 % 1001,6 hPa 0,0 l/m 0 min 0 min 0 W/m 29,0 km/h (5 Bft) 100,00 %
30.10.2018 23:08 8,2 C 6,7 C 6,7 C 94 % 1001,6 hPa 0,0 l/m 0 min 0 min 0 W/m 22,5 km/h (4 Bft) 97,87 %
30.10.2018 23:10 8,2 C 6,7 C 6,7 C 93 % 1001,7 hPa 0,0 l/m 0 min 0 min 0 W/m 16,1 km/h (3 Bft) 100,00 %
30.10.2018 23:12 8,2 C 6,7 C 6,7 C 93 % 1001,6 hPa 0,0 l/m 0 min 0 min 0 W/m 22,5 km/h (4 Bft) 100,00 %
30.10.2018 23:14 8,2 C 6,7 C 6,7 C 93 % 1001,8 hPa 0,0 l/m 0 min 0 min 0 W/m 19,3 km/h (3 Bft) 97,83 %
30.10.2018 23:16 8,1 C 6,7 C 6,7 C 93 % 1001,8 hPa 0,0 l/m 0 min 0 min 0 W/m 12,9 km/h (3 Bft) 97,87 %
30.10.2018 23:18 8,1 C 6,7 C 6,7 C 93 % 1001,8 hPa 0,0 l/m 0 min 0 min 0 W/m 16,1 km/h (3 Bft) 97,87 %
30.10.2018 23:20 8,1 C 6,7 C 6,7 C 93 % 1001,8 hPa 0,0 l/m 0 min 0 min 0 W/m 16,1 km/h (3 Bft) 97,87 %
30.10.2018 23:22 8,1 C 6,7 C 6,7 C 93 % 1001,9 hPa 0,0 l/m 0 min 0 min 0 W/m 29,0 km/h (5 Bft) 93,62 %
30.10.2018 23:24 8,1 C 6,7 C 6,7 C 93 % 1002,2 hPa 0,0 l/m 0 min 0 min 0 W/m 12,9 km/h (3 Bft) 97,87 %
30.10.2018 23:26 8,1 C 6,7 C 6,7 C 93 % 1002,1 hPa 0,0 l/m 0 min 0 min 0 W/m 12,9 km/h (3 Bft) 91,30 %
30.10.2018 23:28 8,1 C 6,7 C 6,7 C 93 % 1002,2 hPa 0,0 l/m 0 min 0 min 0 W/m 22,5 km/h (4 Bft) 95,74 %
30.10.2018 23:30 8,1 C 6,7 C 6,7 C 92 % 1002,3 hPa 0,0 l/m 0 min 0 min 0 W/m 22,5 km/h (4 Bft) 95,74 %
30.10.2018 23:32 8,1 C 6,7 C 6,7 C 93 % 1002,4 hPa 0,0 l/m 0 min 0 min 0 W/m 19,3 km/h (3 Bft) 93,62 %
30.10.2018 23:34 8,1 C 6,7 C 6,7 C 93 % 1002,5 hPa 0,0 l/m 0 min 0 min 0 W/m 16,1 km/h (3 Bft) 95,74 %
30.10.2018 23:38 8,1 C 7,2 C 6,7 C 92 % 1002,6 hPa 0,0 l/m 0 min 0 min 0 W/m 25,7 km/h (4 Bft) 96,77 %
30.10.2018 23:40 8,1 C 6,7 C 7,2 C 92 % 1002,6 hPa 0,0 l/m 0 min 0 min 0 W/m 29,0 km/h (5 Bft) 95,74 %
30.10.2018 23:42 8,1 C 6,7 C 7,2 C 92 % 1002,6 hPa 0,0 l/m 0 min 0 min 0 W/m 22,5 km/h (4 Bft) 95,74 %
30.10.2018 23:44 8,1 C 6,7 C 7,2 C 92 % 1002,6 hPa 0,0 l/m 0 min 0 min 0 W/m 19,3 km/h (3 Bft) 95,74 %
30.10.2018 23:46 8,1 C 6,7 C 7,2 C 92 % 1002,8 hPa 0,0 l/m 0 min 0 min 0 W/m 19,3 km/h (3 Bft) 91,49 %
30.10.2018 23:48 8,1 C 6,7 C 7,2 C 92 % 1002,8 hPa 0,0 l/m 0 min 0 min 0 W/m 29,0 km/h (5 Bft) 97,87 %
30.10.2018 23:50 8,1 C 6,7 C 7,2 C 92 % 1002,8 hPa 0,0 l/m 0 min 0 min 0 W/m 16,1 km/h (3 Bft) 95,65 %
30.10.2018 23:52 8,1 C 6,7 C 7,2 C 91 % 1002,8 hPa 0,0 l/m 0 min 0 min 0 W/m 19,3 km/h (3 Bft) 89,36 %
30.10.2018 23:54 8,1 C 6,7 C 7,2 C 91 % 1002,8 hPa 0,0 l/m 0 min 0 min 0 W/m 22,5 km/h (4 Bft) 95,74 %
30.10.2018 23:56 8,1 C 6,7 C 7,2 C 91 % 1002,9 hPa 0,0 l/m 0 min 0 min 0 W/m 29,0 km/h (5 Bft) 93,62 %
30.10.2018 23:58 8,1 C 6,7 C 7,2 C 91 % 1002,9 hPa 0,0 l/m 0 min 0 min 0 W/m 12,9 km/h (3 Bft) 93,62 %
_ Min-Zeit 16:26 15:56 16:00 13:32 04:46 - - - - 03:08 12:54
Minimum _ 4,1 C 2,8 C 2,8 C 78 % 983,3 hPa - - - - 0,0 km/h (0 Bft) 80,85 %
_ Max-Zeit 21:56 10:38 21:40 08:02 23:56 03:08 10:40 00:38 13:26 18:18 00:50
Maximum _ 8,5 C 7,2 C 7,2 C 98 % 1002,9 hPa 0,6 l/m 2 min 4 min 233 W/m 45,1 km/h
SO (6 Bft)
100,00 %
Durchschnitt _ 6,1 C 5,3 C 5,0 C 94 % 988,8 hPa #15,4 l/m #14 min. #11:00 h 60 W/m 14,8 km/h (3 Bft) 96,95 %
© 2018 W. Hausmann